Wetterdaten: Donnerstag, 24.11.2016
Datum Zeit Temp. Aussen Temp. o. S. +5cm Feuchte Auss BlattFeu 1 Luftdruck Regen Sonnenschein Regendauer Solar Windben Empfang
24.11.2016 00:00 9,3 C 9,4 C 7,8 C 94 % 0 lf 1017,9 hPa 0,0 l/m 0 min 0 min 3 W/m 12,6 km/h (3 Bft) 93,48 %
24.11.2016 00:02 9,3 C 9,4 C 7,8 C 94 % 0 lf 1017,9 hPa 0,0 l/m 0 min 0 min 5 W/m 10,5 km/h (2 Bft) 92,86 %
24.11.2016 00:05 9,3 C 9,4 C 7,8 C 94 % 0 lf 1017,9 hPa 0,0 l/m 0 min 0 min 1 W/m 10,5 km/h (2 Bft) 94,29 %
24.11.2016 00:08 9,3 C 9,4 C 7,8 C 94 % 0 lf 1017,9 hPa 0,0 l/m 0 min 0 min 0 W/m 10,5 km/h (2 Bft) 94,37 %
24.11.2016 00:10 9,3 C 9,4 C 7,8 C 94 % 0 lf 1017,9 hPa 0,0 l/m 0 min 0 min 2 W/m 10,5 km/h (2 Bft) 93,48 %
24.11.2016 00:12 9,3 C 9,4 C 7,8 C 94 % 0 lf 1018,0 hPa 0,0 l/m 0 min 0 min 0 W/m 10,5 km/h (2 Bft) 95,74 %
24.11.2016 00:14 9,3 C 9,4 C 7,8 C 94 % 0 lf 1017,9 hPa 0,0 l/m 0 min 0 min 0 W/m 8,4 km/h (2 Bft) 91,49 %
24.11.2016 00:16 9,3 C 9,4 C 7,8 C 94 % 0 lf 1018,0 hPa 0,0 l/m 0 min 0 min 0 W/m 8,4 km/h (2 Bft) 95,74 %
24.11.2016 00:18 9,3 C 9,4 C 8,3 C 94 % 0 lf 1018,0 hPa 0,0 l/m 0 min 0 min 0 W/m 12,6 km/h (3 Bft) 93,62 %
24.11.2016 00:20 9,4 C 9,4 C 8,3 C 94 % 0 lf 1017,9 hPa 0,0 l/m 0 min 0 min 0 W/m 12,6 km/h (3 Bft) 95,74 %
24.11.2016 00:22 9,4 C 9,4 C 8,3 C 94 % 0 lf 1017,9 hPa 0,0 l/m 0 min 0 min 0 W/m 12,6 km/h (3 Bft) 93,48 %
24.11.2016 00:24 9,4 C 9,4 C 8,3 C 94 % 0 lf 1017,9 hPa 0,0 l/m 0 min 0 min 0 W/m 14,6 km/h (3 Bft) 93,62 %
24.11.2016 00:26 9,4 C 9,4 C 8,3 C 94 % 0 lf 1017,9 hPa 0,0 l/m 0 min 0 min 3 W/m 14,6 km/h (3 Bft) 95,74 %
24.11.2016 00:28 9,4 C 9,4 C 8,3 C 94 % 0 lf 1017,9 hPa 0,0 l/m 0 min 0 min 1 W/m 12,6 km/h (3 Bft) 97,87 %
24.11.2016 00:30 9,4 C 9,4 C 8,3 C 94 % 0 lf 1018,0 hPa 0,0 l/m 0 min 0 min 2 W/m 12,6 km/h (3 Bft) 95,74 %
24.11.2016 00:32 9,4 C 9,4 C 8,3 C 94 % 0 lf 1018,0 hPa 0,0 l/m 0 min 0 min 0 W/m 8,4 km/h (2 Bft) 97,87 %
24.11.2016 00:34 9,4 C 9,4 C 8,3 C 94 % 0 lf 1018,0 hPa 0,0 l/m 0 min 0 min 0 W/m 12,6 km/h (3 Bft) 89,13 %
24.11.2016 00:36 9,4 C 9,4 C 8,3 C 94 % 0 lf 1018,0 hPa 0,0 l/m 0 min 0 min 0 W/m 10,5 km/h (2 Bft) 97,87 %
24.11.2016 00:38 9,4 C 9,4 C 8,3 C 94 % 0 lf 1017,9 hPa 0,0 l/m 0 min 0 min 0 W/m 10,5 km/h (2 Bft) 93,62 %
24.11.2016 00:40 9,4 C 9,4 C 8,3 C 94 % 0 lf 1018,0 hPa 0,0 l/m 0 min 0 min 0 W/m 14,6 km/h (3 Bft) 95,74 %
24.11.2016 00:42 9,4 C 9,4 C 8,3 C 94 % 0 lf 1018,0 hPa 0,0 l/m 0 min 0 min 0 W/m 12,6 km/h (3 Bft) 95,74 %
24.11.2016 00:44 9,4 C 9,4 C 8,3 C 94 % 0 lf 1018,0 hPa 0,0 l/m 0 min 0 min 0 W/m 10,5 km/h (2 Bft) 93,62 %
24.11.2016 00:46 9,4 C 9,4 C 8,3 C 94 % 0 lf 1018,1 hPa 0,0 l/m 0 min 0 min 0 W/m 10,5 km/h (2 Bft) 97,83 %
24.11.2016 00:48 9,5 C 9,4 C 8,3 C 94 % 0 lf 1018,1 hPa 0,0 l/m 0 min 0 min 0 W/m 10,5 km/h (2 Bft) 95,74 %
24.11.2016 00:50 9,4 C 9,4 C 8,3 C 94 % 0 lf 1018,1 hPa 0,0 l/m 0 min 0 min 2 W/m 14,6 km/h (3 Bft) 95,74 %
24.11.2016 00:52 9,5 C 9,4 C 8,3 C 94 % 0 lf 1018,0 hPa 0,0 l/m 0 min 0 min 2 W/m 10,5 km/h (2 Bft) 95,74 %
24.11.2016 00:54 9,5 C 9,4 C 8,3 C 94 % 0 lf 1018,1 hPa 0,0 l/m 0 min 0 min 0 W/m 10,5 km/h (2 Bft) 97,87 %
24.11.2016 00:56 9,5 C 9,4 C 7,8 C 94 % 0 lf 1018,1 hPa 0,0 l/m 0 min 0 min 0 W/m 10,5 km/h (2 Bft) 97,87 %
24.11.2016 00:58 9,5 C 9,4 C 7,8 C 94 % 0 lf 1018,1 hPa 0,0 l/m 0 min 0 min 2 W/m 16,7 km/h (3 Bft) 95,65 %
24.11.2016 01:00 9,5 C 9,4 C 8,3 C 94 % 0 lf 1018,2 hPa 0,0 l/m 0 min 0 min 0 W/m 10,5 km/h (2 Bft) 93,62 %
24.11.2016 01:02 9,5 C 9,4 C 8,3 C 94 % 0 lf 1018,1 hPa 0,0 l/m 0 min 0 min 0 W/m 10,5 km/h (2 Bft) 95,74 %
24.11.2016 01:04 9,4 C 9,4 C 8,3 C 94 % 0 lf 1018,1 hPa 0,0 l/m 0 min 0 min 0 W/m 14,6 km/h (3 Bft) 97,87 %
24.11.2016 01:06 9,4 C 9,4 C 8,3 C 94 % 0 lf 1018,1 hPa 0,0 l/m 0 min 0 min 2 W/m 18,8 km/h (3 Bft) 97,87 %
24.11.2016 01:08 9,4 C 9,4 C 8,3 C 94 % 0 lf 1018,1 hPa 0,0 l/m 0 min 0 min 1 W/m 20,9 km/h (4 Bft) 95,74 %
24.11.2016 01:10 9,4 C 9,4 C 8,3 C 94 % 0 lf 1018,2 hPa 0,0 l/m 0 min 0 min 3 W/m 14,6 km/h (3 Bft) 95,65 %
24.11.2016 01:12 9,4 C 9,4 C 8,3 C 94 % 0 lf 1018,1 hPa 0,0 l/m 0 min 0 min 0 W/m 16,7 km/h (3 Bft) 100,00 %
24.11.2016 01:14 9,4 C 9,4 C 8,3 C 94 % 0 lf 1018,2 hPa 0,0 l/m 0 min 0 min 2 W/m 12,6 km/h (3 Bft) 97,87 %
24.11.2016 01:16 9,4 C 9,4 C 8,3 C 94 % 0 lf 1018,2 hPa 0,0 l/m 0 min 0 min 0 W/m 18,8 km/h (3 Bft) 97,87 %
24.11.2016 01:18 9,4 C 9,4 C 8,3 C 94 % 0 lf 1018,3 hPa 0,0 l/m 0 min 0 min 1 W/m 18,8 km/h (3 Bft) 97,87 %
24.11.2016 01:20 9,4 C 9,4 C 8,3 C 94 % 0 lf 1018,2 hPa 0,0 l/m 0 min 0 min 3 W/m 16,7 km/h (3 Bft) 97,87 %
24.11.2016 01:22 9,4 C 9,4 C 8,3 C 94 % 0 lf 1018,3 hPa 0,0 l/m 0 min 0 min 1 W/m 18,8 km/h (3 Bft) 100,00 %
24.11.2016 01:24 9,5 C 9,4 C 8,3 C 94 % 0 lf 1018,3 hPa 0,0 l/m 0 min 0 min 2 W/m 18,8 km/h (3 Bft) 100,00 %
24.11.2016 01:26 9,5 C 9,4 C 8,3 C 94 % 0 lf 1018,2 hPa 0,0 l/m 0 min 0 min 0 W/m 16,7 km/h (3 Bft) 100,00 %
24.11.2016 01:28 9,5 C 9,4 C 8,3 C 93 % 0 lf 1018,3 hPa 0,0 l/m 0 min 0 min 0 W/m 14,6 km/h (3 Bft) 97,87 %
24.11.2016 01:30 9,5 C 9,4 C 8,3 C 93 % 0 lf 1018,2 hPa 0,0 l/m 0 min 0 min 1 W/m 18,8 km/h (3 Bft) 95,74 %
24.11.2016 01:32 9,5 C 9,4 C 8,3 C 93 % 0 lf 1018,2 hPa 0,0 l/m 0 min 0 min 1 W/m 20,9 km/h (4 Bft) 95,74 %
24.11.2016 01:34 9,5 C 9,4 C 8,3 C 93 % 0 lf 1018,3 hPa 0,0 l/m 0 min 0 min 2 W/m 18,8 km/h (3 Bft) 97,83 %
24.11.2016 01:36 9,5 C 9,4 C 8,3 C 93 % 0 lf 1018,2 hPa 0,0 l/m 0 min 0 min 2 W/m 16,7 km/h (3 Bft) 97,87 %
24.11.2016 01:38 9,5 C 9,4 C 8,3 C 93 % 0 lf 1018,2 hPa 0,0 l/m 0 min 0 min 0 W/m 20,9 km/h (4 Bft) 100,00 %
24.11.2016 01:40 9,5 C 9,4 C 8,3 C 93 % 0 lf 1018,2 hPa 0,0 l/m 0 min 0 min 2 W/m 14,6 km/h (3 Bft) 95,74 %
24.11.2016 01:42 9,5 C 9,4 C 8,3 C 93 % 0 lf 1018,2 hPa 0,0 l/m 0 min 0 min 0 W/m 25,1 km/h (4 Bft) 97,87 %
24.11.2016 01:44 9,5 C 9,4 C 8,3 C 93 % 0 lf 1018,2 hPa 0,0 l/m 0 min 0 min 0 W/m 25,1 km/h (4 Bft) 97,83 %
24.11.2016 01:46 9,5 C 9,4 C 8,3 C 93 % 0 lf 1018,1 hPa 0,0 l/m 0 min 0 min 0 W/m 18,8 km/h (3 Bft) 97,87 %
24.11.2016 01:48 9,5 C 9,4 C 8,3 C 93 % 0 lf 1018,1 hPa 0,0 l/m 0 min 0 min 2 W/m 23,0 km/h (4 Bft) 97,87 %
24.11.2016 01:50 9,5 C 10,0 C 8,3 C 93 % 0 lf 1018,1 hPa 0,0 l/m 0 min 0 min 2 W/m 14,6 km/h (3 Bft) 100,00 %
24.11.2016 01:52 9,6 C 10,0 C 8,3 C 93 % 0 lf 1018,1 hPa 0,0 l/m 0 min 0 min 1 W/m 12,6 km/h (3 Bft) 97,87 %
24.11.2016 01:54 9,6 C 9,4 C 8,3 C 93 % 0 lf 1018,2 hPa 0,0 l/m 0 min 0 min 1 W/m 12,6 km/h (3 Bft) 95,74 %
24.11.2016 01:56 9,6 C 9,4 C 8,3 C 93 % 0 lf 1018,2 hPa 0,0 l/m 0 min 0 min 5 W/m 16,7 km/h (3 Bft) 97,83 %
24.11.2016 01:58 9,6 C 10,0 C 8,3 C 93 % 0 lf 1018,1 hPa 0,0 l/m 0 min 0 min 1 W/m 18,8 km/h (3 Bft) 95,74 %
24.11.2016 02:00 9,6 C 9,4 C 8,3 C 92 % 0 lf 1018,1 hPa 0,0 l/m 0 min 0 min 0 W/m 16,7 km/h (3 Bft) 93,62 %
24.11.2016 02:02 9,6 C 9,4 C 8,3 C 93 % 0 lf 1018,1 hPa 0,0 l/m 0 min 0 min 0 W/m 16,7 km/h (3 Bft) 95,74 %
24.11.2016 02:04 9,6 C 9,4 C 8,3 C 93 % 0 lf 1018,1 hPa 0,0 l/m 0 min 0 min 2 W/m 16,7 km/h (3 Bft) 97,87 %
24.11.2016 02:06 9,6 C 9,4 C 8,3 C 93 % 0 lf 1018,2 hPa 0,0 l/m 0 min 0 min 1 W/m 16,7 km/h (3 Bft) 97,87 %
24.11.2016 02:08 9,6 C 9,4 C 8,3 C 92 % 0 lf 1018,1 hPa 0,0 l/m 0 min 0 min 1 W/m 16,7 km/h (3 Bft) 95,65 %
24.11.2016 02:10 9,6 C 9,4 C 8,3 C 92 % 0 lf 1018,2 hPa 0,0 l/m 0 min 0 min 0 W/m 14,6 km/h (3 Bft) 100,00 %
24.11.2016 02:12 9,6 C 9,4 C 8,3 C 92 % 0 lf 1018,1 hPa 0,0 l/m 0 min 0 min 1 W/m 16,7 km/h (3 Bft) 97,87 %
24.11.2016 02:14 9,6 C 9,4 C 8,3 C 92 % 0 lf 1018,1 hPa 0,0 l/m 0 min 0 min 1 W/m 14,6 km/h (3 Bft) 97,87 %
24.11.2016 02:16 9,6 C 9,4 C 8,3 C 92 % 0 lf 1018,1 hPa 0,0 l/m 0 min 0 min 0 W/m 18,8 km/h (3 Bft) 91,49 %
24.11.2016 02:18 9,6 C 9,4 C 8,3 C 92 % 0 lf 1018,0 hPa 0,0 l/m 0 min 0 min 0 W/m 16,7 km/h (3 Bft) 95,74 %
24.11.2016 02:20 9,6 C 9,4 C 8,3 C 92 % 0 lf 1018,1 hPa 0,0 l/m 0 min 0 min 0 W/m 16,7 km/h (3 Bft) 95,65 %
24.11.2016 02:22 9,6 C 9,4 C 8,3 C 92 % 0 lf 1018,1 hPa 0,0 l/m 0 min 0 min 0 W/m 16,7 km/h (3 Bft) 97,87 %
24.11.2016 02:24 9,5 C 9,4 C 8,3 C 92 % 0 lf 1018,1 hPa 0,0 l/m 0 min 0 min 2 W/m 20,9 km/h (4 Bft) 97,87 %
24.11.2016 02:26 9,5 C 9,4 C 8,3 C 92 % 0 lf 1018,2 hPa 0,0 l/m 0 min 0 min 0 W/m 16,7 km/h (3 Bft) 95,74 %
24.11.2016 02:28 9,5 C 9,4 C 8,3 C 92 % 0 lf 1018,2 hPa 0,0 l/m 0 min 0 min 0 W/m 16,7 km/h (3 Bft) 91,49 %
24.11.2016 02:30 9,5 C 9,4 C 8,3 C 92 % 0 lf 1018,2 hPa 0,0 l/m 0 min 0 min 2 W/m 18,8 km/h (3 Bft) 95,74 %
24.11.2016 02:32 9,5 C 9,4 C 8,3 C 92 % 0 lf 1018,2 hPa 0,0 l/m 0 min 0 min 2 W/m 18,8 km/h (3 Bft) 89,13 %
24.11.2016 02:34 9,5 C 9,4 C 8,3 C 92 % 0 lf 1018,3 hPa 0,0 l/m 0 min 0 min 0 W/m 18,8 km/h (3 Bft) 93,62 %
24.11.2016 02:36 9,5 C 9,4 C 8,3 C 92 % 0 lf 1018,2 hPa 0,0 l/m 0 min 0 min 0 W/m 20,9 km/h (4 Bft) 95,74 %
24.11.2016 02:38 9,5 C 9,4 C 8,3 C 92 % 0 lf 1018,3 hPa 0,0 l/m 0 min 0 min 2 W/m 20,9 km/h (4 Bft) 91,49 %
24.11.2016 02:40 9,6 C 9,4 C 8,3 C 92 % 0 lf 1018,2 hPa 0,0 l/m 0 min 0 min 2 W/m 16,7 km/h (3 Bft) 91,49 %
24.11.2016 02:42 9,6 C 9,4 C 8,3 C 92 % 0 lf 1018,3 hPa 0,0 l/m 0 min 0 min 0 W/m 16,7 km/h (3 Bft) 91,49 %
24.11.2016 02:44 9,6 C 9,4 C 8,3 C 92 % 0 lf 1018,2 hPa 0,0 l/m 0 min 0 min 4 W/m 16,7 km/h (3 Bft) 91,30 %
24.11.2016 02:46 9,6 C 9,4 C 8,3 C 92 % 0 lf 1018,3 hPa 0,0 l/m 0 min 0 min 0 W/m 18,8 km/h (3 Bft) 93,62 %
24.11.2016 02:48 9,6 C 10,0 C 8,3 C 92 % 0 lf 1018,3 hPa 0,0 l/m 0 min 0 min 1 W/m 14,6 km/h (3 Bft) 89,36 %
24.11.2016 02:50 9,6 C 10,0 C 8,3 C 92 % 0 lf 1018,3 hPa 0,0 l/m 0 min 0 min 5 W/m 23,0 km/h (4 Bft) 91,49 %
24.11.2016 02:52 9,6 C 10,0 C 8,3 C 92 % 0 lf 1018,3 hPa 0,0 l/m 0 min 0 min 0 W/m 18,8 km/h (3 Bft) 91,49 %
24.11.2016 02:54 9,6 C 10,0 C 8,3 C 92 % 0 lf 1018,3 hPa 0,0 l/m 0 min 0 min 3 W/m 20,9 km/h (4 Bft) 89,13 %
24.11.2016 02:56 9,6 C 10,0 C 8,3 C 92 % 0 lf 1018,3 hPa 0,0 l/m 0 min 0 min 1 W/m 14,6 km/h (3 Bft) 89,36 %
24.11.2016 02:58 9,6 C 10,0 C 8,3 C 92 % 0 lf 1018,4 hPa 0,0 l/m 0 min 0 min 0 W/m 25,1 km/h (4 Bft) 93,62 %
24.11.2016 03:00 9,6 C 10,0 C 8,3 C 92 % 0 lf 1018,4 hPa 0,0 l/m 0 min 0 min 2 W/m 14,6 km/h (3 Bft) 91,49 %
24.11.2016 03:02 9,6 C 10,0 C 8,3 C 92 % 0 lf 1018,4 hPa 0,0 l/m 0 min 0 min 0 W/m 14,6 km/h (3 Bft) 91,49 %
24.11.2016 03:04 9,6 C 10,0 C 8,3 C 92 % 0 lf 1018,4 hPa 0,0 l/m 0 min 0 min 0 W/m 16,7 km/h (3 Bft) 93,62 %
24.11.2016 03:06 9,7 C 10,0 C 8,3 C 92 % 0 lf 1018,4 hPa 0,0 l/m 0 min 0 min 0 W/m 18,8 km/h (3 Bft) 89,13 %
24.11.2016 03:08 9,7 C 10,0 C 8,3 C 92 % 0 lf 1018,3 hPa 0,0 l/m 0 min 0 min 0 W/m 20,9 km/h (4 Bft) 95,74 %
24.11.2016 03:10 9,7 C 10,0 C 8,3 C 92 % 0 lf 1018,4 hPa 0,0 l/m 0 min 0 min 0 W/m 18,8 km/h (3 Bft) 89,36 %
24.11.2016 03:12 9,7 C 10,0 C 8,3 C 91 % 0 lf 1018,3 hPa 0,0 l/m 0 min 0 min 2 W/m 23,0 km/h (4 Bft) 95,74 %
24.11.2016 03:14 9,7 C 10,0 C 8,3 C 91 % 0 lf 1018,3 hPa 0,0 l/m 0 min 0 min 1 W/m 18,8 km/h (3 Bft) 91,49 %
24.11.2016 03:16 9,7 C 10,0 C 8,3 C 91 % 0 lf 1018,3 hPa 0,0 l/m 0 min 0 min 1 W/m 23,0 km/h (4 Bft) 97,87 %
24.11.2016 03:18 9,7 C 10,0 C 8,3 C 92 % 0 lf 1018,4 hPa 0,0 l/m 0 min 0 min 5 W/m 20,9 km/h (4 Bft) 97,83 %
24.11.2016 03:20 9,7 C 10,0 C 8,3 C 91 % 0 lf 1018,3 hPa 0,0 l/m 0 min 0 min 1 W/m 18,8 km/h (3 Bft) 93,62 %
24.11.2016 03:22 9,7 C 10,0 C 8,3 C 91 % 0 lf 1018,3 hPa 0,0 l/m 0 min 0 min 2 W/m 23,0 km/h (4 Bft) 95,74 %
24.11.2016 03:24 9,7 C 10,0 C 8,9 C 91 % 0 lf 1018,3 hPa 0,0 l/m 0 min 0 min 0 W/m 23,0 km/h (4 Bft) 95,74 %
24.11.2016 03:26 9,7 C 10,0 C 8,3 C 91 % 0 lf 1018,3 hPa 0,0 l/m 0 min 0 min 0 W/m 14,6 km/h (3 Bft) 95,74 %
24.11.2016 03:28 9,8 C 10,0 C 8,3 C 91 % 0 lf 1018,3 hPa 0,0 l/m 0 min 0 min 2 W/m 16,7 km/h (3 Bft) 95,74 %
24.11.2016 03:30 9,8 C 10,0 C 8,3 C 91 % 0 lf 1018,3 hPa 0,0 l/m 0 min 0 min 0 W/m 23,0 km/h (4 Bft) 97,83 %
24.11.2016 03:32 9,8 C 10,0 C 8,3 C 91 % 0 lf 1018,4 hPa 0,0 l/m 0 min 0 min 2 W/m 23,0 km/h (4 Bft) 91,49 %
24.11.2016 03:34 9,8 C 10,0 C 8,3 C 91 % 0 lf 1018,4 hPa 0,0 l/m 0 min 0 min 0 W/m 20,9 km/h (4 Bft) 95,74 %
24.11.2016 03:36 9,8 C 10,0 C 8,3 C 91 % 0 lf 1018,4 hPa 0,0 l/m 0 min 0 min 0 W/m 25,1 km/h (4 Bft) 100,00 %
24.11.2016 03:38 9,8 C 10,0 C 8,3 C 91 % 0 lf 1018,3 hPa 0,0 l/m 0 min 0 min 2 W/m 27,2 km/h (4 Bft) 100,00 %
24.11.2016 03:40 9,8 C 10,0 C 8,3 C 91 % 0 lf 1018,3 hPa 0,0 l/m 0 min 0 min 3 W/m 20,9 km/h (4 Bft) 100,00 %
24.11.2016 03:42 9,8 C 10,0 C 8,9 C 91 % 0 lf 1018,4 hPa 0,0 l/m 0 min 0 min 3 W/m 20,9 km/h (4 Bft) 97,83 %
24.11.2016 03:44 9,8 C 10,0 C 8,3 C 91 % 0 lf 1018,3 hPa 0,0 l/m 0 min 0 min 2 W/m 25,1 km/h (4 Bft) 100,00 %
24.11.2016 03:46 9,8 C 10,0 C 8,9 C 90 % 0 lf 1018,4 hPa 0,0 l/m 0 min 0 min 2 W/m 18,8 km/h (3 Bft) 100,00 %
24.11.2016 03:48 9,8 C 10,0 C 8,9 C 90 % 0 lf 1018,4 hPa 0,0 l/m 0 min 0 min 4 W/m 23,0 km/h (4 Bft) 100,00 %
24.11.2016 03:50 9,8 C 10,0 C 8,3 C 90 % 0 lf 1018,4 hPa 0,0 l/m 0 min 0 min 1 W/m 23,0 km/h (4 Bft) 97,87 %
24.11.2016 03:52 9,8 C 10,0 C 8,9 C 90 % 0 lf 1018,3 hPa 0,0 l/m 0 min 0 min 2 W/m 16,7 km/h (3 Bft) 100,00 %
24.11.2016 03:54 9,8 C 10,0 C 8,3 C 90 % 0 lf 1018,4 hPa 0,0 l/m 0 min 0 min 2 W/m 16,7 km/h (3 Bft) 100,00 %
24.11.2016 03:56 9,8 C 10,0 C 8,9 C 90 % 0 lf 1018,4 hPa 0,0 l/m 0 min 0 min 2 W/m 18,8 km/h (3 Bft) 100,00 %
24.11.2016 03:58 9,9 C 10,0 C 8,3 C 90 % 0 lf 1018,5 hPa 0,0 l/m 0 min 0 min 1 W/m 20,9 km/h (4 Bft) 97,87 %
24.11.2016 04:00 9,9 C 10,0 C 8,3 C 90 % 2 lf 1018,5 hPa 0,0 l/m 0 min 0 min 1 W/m 18,8 km/h (3 Bft) 97,87 %
24.11.2016 04:05 9,9 C 10,0 C 8,3 C 90 % 1 lf 1018,5 hPa 0,0 l/m 0 min 0 min 2 W/m 20,9 km/h (4 Bft) 95,52 %
24.11.2016 04:06 9,9 C 10,0 C 8,3 C 90 % 0 lf 1018,5 hPa 0,0 l/m 0 min 0 min 0 W/m 18,8 km/h (3 Bft) 91,30 %
24.11.2016 04:08 9,9 C 10,0 C 8,9 C 90 % 2 lf 1018,5 hPa 0,0 l/m 0 min 0 min 2 W/m 14,6 km/h (3 Bft) 97,87 %
24.11.2016 04:10 9,9 C 10,0 C 8,3 C 90 % 1 lf 1018,5 hPa 0,0 l/m 0 min 0 min 1 W/m 20,9 km/h (4 Bft) 100,00 %
24.11.2016 04:12 9,9 C 10,0 C 8,9 C 90 % 2 lf 1018,6 hPa 0,0 l/m 0 min 2 min 3 W/m 18,8 km/h (3 Bft) 95,74 %
24.11.2016 04:14 9,9 C 10,0 C 8,9 C 90 % 2 lf 1018,5 hPa 0,0 l/m 0 min 2 min 2 W/m 18,8 km/h (3 Bft) 97,87 %
24.11.2016 04:16 9,9 C 10,0 C 8,3 C 90 % 1 lf 1018,5 hPa 0,0 l/m 0 min 0 min 0 W/m 16,7 km/h (3 Bft) 100,00 %
24.11.2016 04:18 9,9 C 10,0 C 8,3 C 90 % 2 lf 1018,5 hPa 0,0 l/m 0 min 2 min 2 W/m 20,9 km/h (4 Bft) 100,00 %
24.11.2016 04:20 9,9 C 10,0 C 8,3 C 90 % 2 lf 1018,6 hPa 0,0 l/m 0 min 0 min 2 W/m 14,6 km/h (3 Bft) 100,00 %
24.11.2016 04:22 9,9 C 10,0 C 8,3 C 90 % 1 lf 1018,6 hPa 0,0 l/m 0 min 0 min 0 W/m 14,6 km/h (3 Bft) 97,87 %
24.11.2016 04:24 9,9 C 10,0 C 8,3 C 90 % 1 lf 1018,6 hPa 0,0 l/m 0 min 0 min 2 W/m 18,8 km/h (3 Bft) 100,00 %
24.11.2016 04:26 9,9 C 10,0 C 8,3 C 90 % 0 lf 1018,6 hPa 0,0 l/m 0 min 0 min 0 W/m 16,7 km/h (3 Bft) 97,87 %
24.11.2016 04:28 9,9 C 10,0 C 8,3 C 90 % 2 lf 1018,6 hPa 0,0 l/m 0 min 2 min 1 W/m 14,6 km/h (3 Bft) 95,65 %
24.11.2016 04:30 9,9 C 10,0 C 8,3 C 90 % 2 lf 1018,7 hPa 0,0 l/m 0 min 2 min 5 W/m 16,7 km/h (3 Bft) 100,00 %
24.11.2016 04:32 9,9 C 10,0 C 8,3 C 90 % 0 lf 1018,6 hPa 0,0 l/m 0 min 0 min 2 W/m 20,9 km/h (4 Bft) 100,00 %
24.11.2016 04:34 9,9 C 10,0 C 8,3 C 90 % 3 lf 1018,7 hPa 0,0 l/m 0 min 2 min 0 W/m 18,8 km/h (3 Bft) 100,00 %
24.11.2016 04:36 9,9 C 10,0 C 8,3 C 90 % 4 lf 1018,7 hPa 0,0 l/m 0 min 2 min 0 W/m 23,0 km/h (4 Bft) 97,87 %
24.11.2016 04:38 9,9 C 10,0 C 8,3 C 90 % 6 lf 1018,7 hPa 0,0 l/m 0 min 0 min 2 W/m 20,9 km/h (4 Bft) 97,87 %
24.11.2016 04:40 9,9 C 10,0 C 8,3 C 91 % 3 lf 1018,7 hPa 0,0 l/m 0 min 0 min 2 W/m 18,8 km/h (3 Bft) 97,83 %
24.11.2016 04:42 9,9 C 10,0 C 8,3 C 91 % 2 lf 1018,8 hPa 0,0 l/m 0 min 0 min 3 W/m 16,7 km/h (3 Bft) 95,74 %
24.11.2016 04:44 9,9 C 10,0 C 8,3 C 91 % 1 lf 1018,7 hPa 0,0 l/m 0 min 0 min 2 W/m 18,8 km/h (3 Bft) 93,62 %
24.11.2016 04:46 9,9 C 10,0 C 8,3 C 91 % 1 lf 1018,7 hPa 0,0 l/m 0 min 0 min 0 W/m 14,6 km/h (3 Bft) 91,49 %
24.11.2016 04:48 9,9 C 10,0 C 8,3 C 91 % 0 lf 1018,7 hPa 0,0 l/m 0 min 2 min 0 W/m 18,8 km/h (3 Bft) 95,74 %
24.11.2016 04:50 9,9 C 10,0 C 8,3 C 91 % 1 lf 1018,7 hPa 0,0 l/m 0 min 0 min 4 W/m 20,9 km/h (4 Bft) 97,87 %
24.11.2016 04:52 9,9 C 10,0 C 8,3 C 91 % 3 lf 1018,8 hPa 0,0 l/m 0 min 0 min 0 W/m 20,9 km/h (4 Bft) 97,83 %
24.11.2016 04:54 9,9 C 10,0 C 8,3 C 91 % 2 lf 1018,8 hPa 0,0 l/m 0 min 0 min 0 W/m 23,0 km/h (4 Bft) 97,87 %
24.11.2016 04:56 9,9 C 10,0 C 8,3 C 91 % 0 lf 1018,7 hPa 0,0 l/m 0 min 0 min 0 W/m 20,9 km/h (4 Bft) 89,36 %
24.11.2016 04:58 9,9 C 10,0 C 8,3 C 91 % 0 lf 1018,8 hPa 0,0 l/m 0 min 0 min 0 W/m 20,9 km/h (4 Bft) 95,74 %
24.11.2016 05:00 9,9 C 10,0 C 8,3 C 91 % 0 lf 1018,8 hPa 0,0 l/m 0 min 0 min 2 W/m 25,1 km/h (4 Bft) 97,87 %
24.11.2016 05:02 9,9 C 10,0 C 8,3 C 91 % 0 lf 1018,8 hPa 0,0 l/m 0 min 0 min 2 W/m 18,8 km/h (3 Bft) 95,74 %
24.11.2016 05:04 9,9 C 10,0 C 8,3 C 91 % 0 lf 1018,9 hPa 0,0 l/m 0 min 0 min 2 W/m 20,9 km/h (4 Bft) 97,83 %
24.11.2016 05:06 9,8 C 10,0 C 8,3 C 91 % 0 lf 1018,9 hPa 0,0 l/m 0 min 0 min 5 W/m 23,0 km/h (4 Bft) 97,87 %
24.11.2016 05:08 9,8 C 10,0 C 8,3 C 91 % 0 lf 1018,8 hPa 0,0 l/m 0 min 0 min 0 W/m 25,1 km/h (4 Bft) 95,74 %
24.11.2016 05:10 9,8 C 10,0 C 8,3 C 91 % 0 lf 1018,8 hPa 0,0 l/m 0 min 0 min 0 W/m 23,0 km/h (4 Bft) 100,00 %
24.11.2016 05:12 9,8 C 10,0 C 8,3 C 91 % 2 lf 1018,9 hPa 0,0 l/m 0 min 0 min 2 W/m 25,1 km/h (4 Bft) 100,00 %
24.11.2016 05:14 9,8 C 10,0 C 8,3 C 91 % 4 lf 1018,8 hPa 0,0 l/m 0 min 2 min 2 W/m 29,3 km/h (5 Bft) 97,83 %
24.11.2016 05:16 9,8 C 10,0 C 8,3 C 91 % 4 lf 1018,9 hPa 0,0 l/m 0 min 0 min 2 W/m 25,1 km/h (4 Bft) 97,87 %
24.11.2016 05:18 9,8 C 10,0 C 8,3 C 91 % 3 lf 1018,9 hPa 0,0 l/m 0 min 0 min 0 W/m 25,1 km/h (4 Bft) 100,00 %
24.11.2016 05:20 9,8 C 10,0 C 8,3 C 91 % 5 lf 1018,9 hPa 0,0 l/m 0 min 2 min 0 W/m 23,0 km/h (4 Bft) 97,87 %
24.11.2016 05:22 9,8 C 10,0 C 8,9 C 91 % 3 lf 1019,0 hPa 0,0 l/m 0 min 0 min 4 W/m 23,0 km/h (4 Bft) 97,87 %
24.11.2016 05:24 9,8 C 10,0 C 8,3 C 91 % 1 lf 1018,9 hPa 0,0 l/m 0 min 0 min 2 W/m 29,3 km/h (5 Bft) 93,62 %
24.11.2016 05:26 9,8 C 10,0 C 8,3 C 91 % 1 lf 1018,9 hPa 0,0 l/m 0 min 2 min 0 W/m 27,2 km/h (4 Bft) 97,83 %
24.11.2016 05:28 9,9 C 10,0 C 8,9 C 91 % 2 lf 1019,0 hPa 0,0 l/m 0 min 0 min 2 W/m 25,1 km/h (4 Bft) 95,74 %
24.11.2016 05:30 9,8 C 10,0 C 8,3 C 91 % 0 lf 1019,0 hPa 0,0 l/m 0 min 0 min 2 W/m 31,4 km/h (5 Bft) 97,87 %
24.11.2016 05:32 9,8 C 10,0 C 8,3 C 91 % 1 lf 1019,0 hPa 0,0 l/m 0 min 0 min 1 W/m 20,9 km/h (4 Bft) 95,74 %
24.11.2016 05:34 9,8 C 10,0 C 8,3 C 91 % 0 lf 1019,0 hPa 0,0 l/m 0 min 0 min 1 W/m 18,8 km/h (3 Bft) 95,74 %
24.11.2016 05:36 9,8 C 10,0 C 8,3 C 91 % 0 lf 1019,0 hPa 0,0 l/m 0 min 0 min 0 W/m 27,2 km/h (4 Bft) 95,74 %
24.11.2016 05:38 9,8 C 10,0 C 8,3 C 91 % 0 lf 1019,1 hPa 0,0 l/m 0 min 0 min 0 W/m 18,8 km/h (3 Bft) 91,30 %
24.11.2016 05:40 9,8 C 10,0 C 8,3 C 91 % 1 lf 1019,1 hPa 0,0 l/m 0 min 0 min 2 W/m 20,9 km/h (4 Bft) 91,49 %
24.11.2016 05:42 9,8 C 10,0 C 8,3 C 91 % 1 lf 1019,1 hPa 0,0 l/m 0 min 0 min 2 W/m 27,2 km/h (4 Bft) 93,62 %
24.11.2016 05:44 9,8 C 10,0 C 8,3 C 91 % 0 lf 1019,1 hPa 0,0 l/m 0 min 0 min 0 W/m 29,3 km/h (5 Bft) 95,74 %
24.11.2016 05:46 9,8 C 10,0 C 8,3 C 91 % 0 lf 1019,1 hPa 0,0 l/m 0 min 0 min 0 W/m 23,0 km/h (4 Bft) 93,62 %
24.11.2016 05:48 9,8 C 10,0 C 8,3 C 91 % 0 lf 1019,1 hPa 0,0 l/m 0 min 0 min 1 W/m 25,1 km/h (4 Bft) 91,49 %
24.11.2016 05:50 9,8 C 10,0 C 8,3 C 91 % 0 lf 1019,1 hPa 0,0 l/m 0 min 0 min 5 W/m 18,8 km/h (3 Bft) 86,96 %
24.11.2016 05:52 9,8 C 10,0 C 8,3 C 91 % 0 lf 1019,1 hPa 0,0 l/m 0 min 0 min 1 W/m 20,9 km/h (4 Bft) 89,36 %
24.11.2016 05:54 9,8 C 10,0 C 8,3 C 90 % 1 lf 1019,1 hPa 0,0 l/m 0 min 0 min 0 W/m 23,0 km/h (4 Bft) 93,62 %
24.11.2016 05:56 9,8 C 10,0 C 8,3 C 90 % 0 lf 1019,1 hPa 0,0 l/m 0 min 2 min 0 W/m 16,7 km/h (3 Bft) 89,36 %
24.11.2016 05:58 9,8 C 10,0 C 8,3 C 90 % 0 lf 1019,1 hPa 0,0 l/m 0 min 0 min 0 W/m 23,0 km/h (4 Bft) 95,74 %
24.11.2016 06:00 9,8 C 10,0 C 8,3 C 90 % 1 lf 1019,1 hPa 0,0 l/m 0 min 0 min 2 W/m 29,3 km/h (5 Bft) 93,62 %
24.11.2016 06:02 9,8 C 10,0 C 8,3 C 90 % 0 lf 1019,1 hPa 0,0 l/m 0 min 0 min 0 W/m 29,3 km/h (5 Bft) 93,48 %
24.11.2016 06:06 9,7 C 10,0 C 8,3 C 91 % 7 lf 1019,2 hPa 0,0 l/m 0 min 2 min 3 W/m 20,9 km/h (4 Bft) 91,58 %
24.11.2016 06:08 9,7 C 10,0 C 8,3 C 90 % 10 lf 1019,3 hPa 0,0 l/m 0 min 2 min 3 W/m 25,1 km/h (4 Bft) 91,49 %
24.11.2016 06:10 9,7 C 9,4 C 8,3 C 91 % 9 lf 1019,2 hPa 0,0 l/m 0 min 2 min 0 W/m 20,9 km/h (4 Bft) 95,74 %
24.11.2016 06:12 9,7 C 9,4 C 8,3 C 91 % 9 lf 1019,2 hPa 0,0 l/m 0 min 2 min 4 W/m 23,0 km/h (4 Bft) 91,49 %
24.11.2016 06:14 9,7 C 9,4 C 8,3 C 91 % 4 lf 1019,2 hPa 0,0 l/m 0 min 0 min 2 W/m 25,1 km/h (4 Bft) 91,30 %
24.11.2016 06:16 9,7 C 9,4 C 7,8 C 91 % 3 lf 1019,2 hPa 0,0 l/m 0 min 0 min 1 W/m 18,8 km/h (3 Bft) 93,62 %
24.11.2016 06:18 9,7 C 9,4 C 7,8 C 91 % 2 lf 1019,2 hPa 0,0 l/m 0 min 0 min 4 W/m 16,7 km/h (3 Bft) 93,62 %
24.11.2016 06:20 9,7 C 9,4 C 7,8 C 91 % 1 lf 1019,3 hPa 0,0 l/m 0 min 0 min 0 W/m 23,0 km/h (4 Bft) 97,87 %
24.11.2016 06:22 9,7 C 9,4 C 7,8 C 91 % 0 lf 1019,2 hPa 0,0 l/m 0 min 0 min 0 W/m 23,0 km/h (4 Bft) 95,74 %
24.11.2016 06:24 9,7 C 9,4 C 7,8 C 91 % 0 lf 1019,3 hPa 0,0 l/m 0 min 0 min 0 W/m 20,9 km/h (4 Bft) 95,74 %
24.11.2016 06:26 9,7 C 9,4 C 7,8 C 91 % 2 lf 1019,3 hPa 0,0 l/m 0 min 0 min 0 W/m 20,9 km/h (4 Bft) 89,13 %
24.11.2016 06:28 9,6 C 9,4 C 7,8 C 91 % 1 lf 1019,2 hPa 0,0 l/m 0 min 0 min 2 W/m 23,0 km/h (4 Bft) 95,74 %
24.11.2016 06:30 9,6 C 9,4 C 7,8 C 91 % 0 lf 1019,2 hPa 0,0 l/m 0 min 0 min 2 W/m 20,9 km/h (4 Bft) 91,49 %
24.11.2016 06:32 9,6 C 9,4 C 7,8 C 91 % 0 lf 1019,2 hPa 0,0 l/m 0 min 0 min 2 W/m 18,8 km/h (3 Bft) 93,62 %
24.11.2016 06:34 9,6 C 9,4 C 7,8 C 91 % 0 lf 1019,3 hPa 0,0 l/m 0 min 0 min 0 W/m 23,0 km/h (4 Bft) 93,62 %
24.11.2016 06:36 9,6 C 9,4 C 8,3 C 91 % 0 lf 1019,2 hPa 0,0 l/m 0 min 0 min 0 W/m 18,8 km/h (3 Bft) 95,65 %
24.11.2016 06:38 9,6 C 9,4 C 8,3 C 91 % 0 lf 1019,2 hPa 0,0 l/m 0 min 0 min 2 W/m 25,1 km/h (4 Bft) 93,62 %
24.11.2016 06:40 9,6 C 9,4 C 7,8 C 91 % 0 lf 1019,1 hPa 0,0 l/m 0 min 0 min 2 W/m 29,3 km/h (5 Bft) 95,74 %
24.11.2016 06:42 9,6 C 9,4 C 8,3 C 91 % 0 lf 1019,1 hPa 0,0 l/m 0 min 2 min 0 W/m 20,9 km/h (4 Bft) 95,74 %
24.11.2016 06:44 9,5 C 9,4 C 8,3 C 91 % 0 lf 1019,1 hPa 0,0 l/m 0 min 0 min 2 W/m 27,2 km/h (4 Bft) 89,36 %
24.11.2016 06:46 9,5 C 9,4 C 8,3 C 91 % 0 lf 1019,1 hPa 0,0 l/m 0 min 0 min 3 W/m 23,0 km/h (4 Bft) 95,74 %
24.11.2016 06:48 9,5 C 9,4 C 8,3 C 91 % 0 lf 1019,1 hPa 0,0 l/m 0 min 0 min 3 W/m 25,1 km/h (4 Bft) 93,48 %
24.11.2016 06:50 9,5 C 9,4 C 8,3 C 91 % 0 lf 1019,1 hPa 0,0 l/m 0 min 0 min 1 W/m 18,8 km/h (3 Bft) 95,74 %
24.11.2016 06:52 9,5 C 9,4 C 8,3 C 91 % 0 lf 1019,1 hPa 0,0 l/m 0 min 0 min 3 W/m 27,2 km/h (4 Bft) 95,74 %
24.11.2016 06:54 9,5 C 9,4 C 8,3 C 91 % 0 lf 1019,1 hPa 0,0 l/m 0 min 0 min 5 W/m 27,2 km/h (4 Bft) 95,74 %
24.11.2016 06:56 9,5 C 9,4 C 8,3 C 91 % 0 lf 1019,1 hPa 0,0 l/m 0 min 0 min 3 W/m 25,1 km/h (4 Bft) 97,87 %
24.11.2016 06:58 9,5 C 9,4 C 8,3 C 90 % 0 lf 1019,0 hPa 0,0 l/m 0 min 0 min 0 W/m 25,1 km/h (4 Bft) 95,74 %
24.11.2016 07:00 9,5 C 9,4 C 8,3 C 90 % 0 lf 1018,9 hPa 0,0 l/m 0 min 0 min 0 W/m 33,5 km/h (5 Bft) 95,65 %
24.11.2016 07:02 9,5 C 9,4 C 8,3 C 90 % 0 lf 1018,8 hPa 0,0 l/m 0 min 0 min 2 W/m 27,2 km/h (4 Bft) 97,87 %
24.11.2016 07:04 9,5 C 9,4 C 8,3 C 90 % 0 lf 1018,8 hPa 0,0 l/m 0 min 0 min 0 W/m 31,4 km/h (5 Bft) 97,87 %
24.11.2016 07:06 9,5 C 9,4 C 8,3 C 90 % 0 lf 1018,8 hPa 0,0 l/m 0 min 0 min 0 W/m 25,1 km/h (4 Bft) 95,74 %
24.11.2016 07:08 9,5 C 9,4 C 8,3 C 90 % 0 lf 1018,8 hPa 0,0 l/m 0 min 0 min 2 W/m 23,0 km/h (4 Bft) 100,00 %
24.11.2016 07:10 9,5 C 9,4 C 8,3 C 90 % 0 lf 1018,8 hPa 0,0 l/m 0 min 0 min 0 W/m 25,1 km/h (4 Bft) 100,00 %
24.11.2016 07:12 9,5 C 9,4 C 8,3 C 90 % 0 lf 1018,8 hPa 0,0 l/m 0 min 0 min 1 W/m 27,2 km/h (4 Bft) 97,83 %
24.11.2016 07:14 9,4 C 9,4 C 8,3 C 90 % 0 lf 1018,7 hPa 0,0 l/m 0 min 0 min 3 W/m 27,2 km/h (4 Bft) 100,00 %
24.11.2016 07:16 9,4 C 9,4 C 8,3 C 90 % 0 lf 1018,7 hPa 0,0 l/m 0 min 0 min 1 W/m 31,4 km/h (5 Bft) 97,87 %
24.11.2016 07:18 9,4 C 9,4 C 8,3 C 90 % 0 lf 1018,8 hPa 0,0 l/m 0 min 0 min 1 W/m 25,1 km/h (4 Bft) 97,87 %
24.11.2016 07:20 9,4 C 9,4 C 8,3 C 90 % 0 lf 1018,8 hPa 0,0 l/m 0 min 0 min 0 W/m 23,0 km/h (4 Bft) 100,00 %
24.11.2016 07:22 9,4 C 9,4 C 8,3 C 90 % 0 lf 1018,8 hPa 0,0 l/m 0 min 0 min 0 W/m 18,8 km/h (3 Bft) 100,00 %
24.11.2016 07:24 9,4 C 9,4 C 8,3 C 90 % 0 lf 1018,9 hPa 0,0 l/m 0 min 0 min 0 W/m 18,8 km/h (3 Bft) 97,83 %
24.11.2016 07:26 9,4 C 9,4 C 8,3 C 90 % 0 lf 1018,8 hPa 0,0 l/m 0 min 0 min 0 W/m 18,8 km/h (3 Bft) 100,00 %
24.11.2016 07:28 9,4 C 9,4 C 8,3 C 90 % 0 lf 1018,8 hPa 0,0 l/m 0 min 0 min 0 W/m 23,0 km/h (4 Bft) 97,87 %
24.11.2016 07:30 9,4 C 9,4 C 8,3 C 90 % 0 lf 1018,9 hPa 0,0 l/m 0 min 0 min 2 W/m 25,1 km/h (4 Bft) 97,87 %
24.11.2016 07:32 9,4 C 9,4 C 8,3 C 90 % 0 lf 1019,0 hPa 0,0 l/m 0 min 0 min 1 W/m 27,2 km/h (4 Bft) 97,87 %
24.11.2016 07:34 9,4 C 9,4 C 8,3 C 90 % 0 lf 1018,9 hPa 0,0 l/m 0 min 0 min 2 W/m 31,4 km/h (5 Bft) 100,00 %
24.11.2016 07:36 9,4 C 9,4 C 8,3 C 90 % 0 lf 1018,8 hPa 0,0 l/m 0 min 0 min 0 W/m 20,9 km/h (4 Bft) 97,83 %
24.11.2016 07:38 9,4 C 9,4 C 8,3 C 90 % 0 lf 1018,9 hPa 0,0 l/m 0 min 0 min 2 W/m 23,0 km/h (4 Bft) 100,00 %
24.11.2016 07:40 9,4 C 9,4 C 8,3 C 90 % 0 lf 1018,9 hPa 0,0 l/m 0 min 0 min 0 W/m 31,4 km/h (5 Bft) 97,87 %
24.11.2016 07:42 9,4 C 9,4 C 7,8 C 90 % 0 lf 1019,0 hPa 0,0 l/m 0 min 0 min 2 W/m 23,0 km/h (4 Bft) 100,00 %
24.11.2016 07:44 9,4 C 9,4 C 7,8 C 90 % 0 lf 1019,0 hPa 0,0 l/m 0 min 0 min 0 W/m 18,8 km/h (3 Bft) 100,00 %
24.11.2016 07:46 9,4 C 9,4 C 7,8 C 90 % 0 lf 1019,0 hPa 0,0 l/m 0 min 0 min 1 W/m 23,0 km/h (4 Bft) 97,83 %
24.11.2016 07:48 9,4 C 9,4 C 7,8 C 90 % 0 lf 1019,0 hPa 0,0 l/m 0 min 0 min 5 W/m 23,0 km/h (4 Bft) 100,00 %
24.11.2016 07:50 9,3 C 9,4 C 7,8 C 90 % 0 lf 1019,0 hPa 0,0 l/m 0 min 0 min 0 W/m 18,8 km/h (3 Bft) 100,00 %
24.11.2016 07:52 9,3 C 9,4 C 7,8 C 90 % 0 lf 1019,1 hPa 0,0 l/m 0 min 0 min 2 W/m 20,9 km/h (4 Bft) 93,62 %
24.11.2016 07:54 9,3 C 9,4 C 7,8 C 90 % 0 lf 1019,1 hPa 0,0 l/m 0 min 0 min 2 W/m 35,6 km/h (5 Bft) 100,00 %
24.11.2016 07:56 9,3 C 9,4 C 7,8 C 90 % 0 lf 1019,1 hPa 0,0 l/m 0 min 0 min 5 W/m 35,6 km/h (5 Bft) 97,87 %
24.11.2016 07:58 9,3 C 9,4 C 7,8 C 89 % 0 lf 1019,1 hPa 0,0 l/m 0 min 0 min 5 W/m 23,0 km/h (4 Bft) 100,00 %
24.11.2016 08:00 9,3 C 9,4 C 7,8 C 89 % 0 lf 1019,2 hPa 0,0 l/m 0 min 0 min 5 W/m 23,0 km/h (4 Bft) 97,87 %
24.11.2016 08:02 9,3 C 9,4 C 7,8 C 89 % 0 lf 1019,2 hPa 0,0 l/m 0 min 0 min 5 W/m 31,4 km/h (5 Bft) 95,74 %
24.11.2016 08:04 9,3 C 9,4 C 7,8 C 89 % 0 lf 1019,3 hPa 0,0 l/m 0 min 0 min 5 W/m 27,2 km/h (4 Bft) 100,00 %
24.11.2016 08:06 9,3 C 9,4 C 7,8 C 89 % 0 lf 1019,3 hPa 0,0 l/m 0 min 0 min 5 W/m 27,2 km/h (4 Bft) 97,87 %
24.11.2016 08:08 9,3 C 9,4 C 7,8 C 89 % 0 lf 1019,4 hPa 0,0 l/m 0 min 0 min 5 W/m 35,6 km/h (5 Bft) 100,00 %
24.11.2016 08:10 9,3 C 9,4 C 7,8 C 89 % 0 lf 1019,4 hPa 0,0 l/m 0 min 0 min 6 W/m 25,1 km/h (4 Bft) 97,83 %
24.11.2016 08:12 9,3 C 9,4 C 7,8 C 89 % 0 lf 1019,4 hPa 0,0 l/m 0 min 0 min 7 W/m 23,0 km/h (4 Bft) 93,62 %
24.11.2016 08:14 9,3 C 9,4 C 7,8 C 89 % 0 lf 1019,5 hPa 0,0 l/m 0 min 0 min 7 W/m 25,1 km/h (4 Bft) 93,62 %
24.11.2016 08:16 9,3 C 9,4 C 7,8 C 89 % 0 lf 1019,5 hPa 0,0 l/m 0 min 0 min 7 W/m 18,8 km/h (3 Bft) 97,87 %
24.11.2016 08:18 9,3 C 9,4 C 7,8 C 89 % 0 lf 1019,5 hPa 0,0 l/m 0 min 0 min 7 W/m 25,1 km/h (4 Bft) 97,87 %
24.11.2016 08:20 9,3 C 9,4 C 7,8 C 89 % 0 lf 1019,5 hPa 0,0 l/m 0 min 0 min 8 W/m 27,2 km/h (4 Bft) 95,74 %
24.11.2016 08:22 9,3 C 9,4 C 7,8 C 89 % 0 lf 1019,5 hPa 0,0 l/m 0 min 0 min 9 W/m 23,0 km/h (4 Bft) 89,13 %
24.11.2016 08:24 9,3 C 9,4 C 7,8 C 89 % 0 lf 1019,5 hPa 0,0 l/m 0 min 0 min 9 W/m 33,5 km/h (5 Bft) 91,49 %
24.11.2016 08:26 9,3 C 9,4 C 7,8 C 89 % 0 lf 1019,6 hPa 0,0 l/m 0 min 0 min 11 W/m 31,4 km/h (5 Bft) 91,49 %
24.11.2016 08:28 9,3 C 9,4 C 7,8 C 89 % 0 lf 1019,6 hPa 0,0 l/m 0 min 0 min 11 W/m 23,0 km/h (4 Bft) 89,36 %
24.11.2016 08:30 9,3 C 9,4 C 7,8 C 89 % 0 lf 1019,7 hPa 0,0 l/m 0 min 0 min 11 W/m 25,1 km/h (4 Bft) 93,62 %
24.11.2016 08:32 9,3 C 9,4 C 7,8 C 89 % 0 lf 1019,7 hPa 0,0 l/m 0 min 0 min 12 W/m 31,4 km/h (5 Bft) 89,36 %
24.11.2016 08:34 9,3 C 9,4 C 7,8 C 89 % 0 lf 1019,8 hPa 0,0 l/m 0 min 0 min 12 W/m 29,3 km/h (5 Bft) 93,48 %
24.11.2016 08:36 9,2 C 9,4 C 7,8 C 89 % 0 lf 1019,8 hPa 0,0 l/m 0 min 0 min 12 W/m 20,9 km/h (4 Bft) 91,49 %
24.11.2016 08:38 9,2 C 9,4 C 7,8 C 89 % 1 lf 1019,9 hPa 0,0 l/m 0 min 2 min 12 W/m 23,0 km/h (4 Bft) 91,49 %
24.11.2016 08:40 9,2 C 9,4 C 7,8 C 89 % 1 lf 1019,9 hPa 0,0 l/m 0 min 2 min 13 W/m 14,6 km/h (3 Bft) 93,62 %
24.11.2016 08:42 9,2 C 9,4 C 7,8 C 89 % 1 lf 1019,9 hPa 0,0 l/m 0 min 2 min 14 W/m 18,8 km/h (3 Bft) 91,49 %
24.11.2016 08:44 9,2 C 8,9 C 7,8 C 89 % 3 lf 1019,9 hPa 0,0 l/m 0 min 2 min 14 W/m 16,7 km/h (3 Bft) 93,62 %
24.11.2016 08:46 9,2 C 8,9 C 7,8 C 90 % 3 lf 1019,8 hPa 0,0 l/m 0 min 2 min 16 W/m 16,7 km/h (3 Bft) 91,30 %
24.11.2016 08:48 9,2 C 8,9 C 7,8 C 90 % 9 lf 1019,8 hPa 0,0 l/m 0 min 2 min 17 W/m 16,7 km/h (3 Bft) 93,62 %
24.11.2016 08:50 9,2 C 8,9 C 7,2 C 90 % 10 lf 1019,8 hPa 0,0 l/m 0 min 2 min 18 W/m 23,0 km/h (4 Bft) 89,36 %
24.11.2016 08:52 9,2 C 8,9 C 7,2 C 90 % 12 lf 1019,8 hPa 0,0 l/m 0 min 0 min 19 W/m 20,9 km/h (4 Bft) 93,62 %
24.11.2016 08:54 9,2 C 8,9 C 7,2 C 90 % 10 lf 1019,8 hPa 0,0 l/m 0 min 0 min 21 W/m 18,8 km/h (3 Bft) 91,49 %
24.11.2016 08:56 9,2 C 8,9 C 7,2 C 90 % 10 lf 1019,9 hPa 0,0 l/m 0 min 2 min 22 W/m 20,9 km/h (4 Bft) 93,62 %
24.11.2016 08:58 9,2 C 8,9 C 7,2 C 90 % 14 lf 1019,9 hPa 0,0 l/m 0 min 2 min 24 W/m 20,9 km/h (4 Bft) 91,30 %
24.11.2016 09:00 9,2 C 8,9 C 7,2 C 90 % 15 lf 1019,8 hPa 0,0 l/m 0 min 2 min 25 W/m 18,8 km/h (3 Bft) 89,36 %
24.11.2016 09:02 9,2 C 8,9 C 7,2 C 90 % 15 lf 1019,7 hPa 0,0 l/m 0 min 2 min 26 W/m 18,8 km/h (3 Bft) 95,74 %
24.11.2016 09:04 9,1 C 8,9 C 7,2 C 90 % 15 lf 1019,8 hPa 0,0 l/m 0 min 2 min 26 W/m 18,8 km/h (3 Bft) 95,74 %
24.11.2016 09:06 9,1 C 8,9 C 7,2 C 90 % 15 lf 1019,7 hPa 0,0 l/m 0 min 0 min 26 W/m 14,6 km/h (3 Bft) 93,62 %
24.11.2016 09:08 9,1 C 8,9 C 7,2 C 90 % 15 lf 1019,6 hPa 0,0 l/m 0 min 0 min 28 W/m 20,9 km/h (4 Bft) 100,00 %
24.11.2016 09:10 9,1 C 8,9 C 7,2 C 90 % 15 lf 1019,7 hPa 0,0 l/m 0 min 0 min 29 W/m 18,8 km/h (3 Bft) 96,77 %
24.11.2016 09:12 9,1 C 8,9 C 7,2 C 90 % 15 lf 1019,7 hPa 0,0 l/m 0 min 2 min 31 W/m 20,9 km/h (4 Bft) 100,00 %
24.11.2016 09:14 9,1 C 8,9 C 7,2 C 91 % 15 lf 1019,7 hPa 0,0 l/m 0 min 2 min 33 W/m 20,9 km/h (4 Bft) 95,74 %
24.11.2016 09:16 9,1 C 8,9 C 7,2 C 91 % 15 lf 1019,7 hPa 0,0 l/m 0 min 0 min 35 W/m 23,0 km/h (4 Bft) 100,00 %
24.11.2016 09:18 9,1 C 8,9 C 7,2 C 91 % 14 lf 1019,6 hPa 0,0 l/m 0 min 0 min 38 W/m 20,9 km/h (4 Bft) 100,00 %
24.11.2016 09:20 9,1 C 9,4 C 7,2 C 91 % 13 lf 1019,7 hPa 0,0 l/m 0 min 2 min 40 W/m 20,9 km/h (4 Bft) 97,87 %
24.11.2016 09:22 9,1 C 9,4 C 7,8 C 91 % 12 lf 1019,7 hPa 0,0 l/m 0 min 2 min 42 W/m 23,0 km/h (4 Bft) 97,87 %
24.11.2016 09:24 9,1 C 9,4 C 7,8 C 91 % 10 lf 1019,7 hPa 0,0 l/m 0 min 2 min 44 W/m 20,9 km/h (4 Bft) 100,00 %
24.11.2016 09:26 9,1 C 9,4 C 7,8 C 91 % 8 lf 1019,7 hPa 0,0 l/m 0 min 2 min 46 W/m 23,0 km/h (4 Bft) 100,00 %
24.11.2016 09:28 9,1 C 9,4 C 7,8 C 91 % 4 lf 1019,7 hPa 0,0 l/m 0 min 2 min 48 W/m 27,2 km/h (4 Bft) 97,87 %
24.11.2016 09:30 9,1 C 9,4 C 7,8 C 91 % 3 lf 1019,7 hPa 0,0 l/m 0 min 0 min 49 W/m 18,8 km/h (3 Bft) 100,00 %
24.11.2016 09:32 9,1 C 9,4 C 7,8 C 91 % 2 lf 1019,7 hPa 0,0 l/m 0 min 0 min 51 W/m 20,9 km/h (4 Bft) 100,00 %
24.11.2016 09:34 9,1 C 9,4 C 7,8 C 91 % 0 lf 1019,8 hPa 0,0 l/m 0 min 0 min 53 W/m 18,8 km/h (3 Bft) 93,48 %
24.11.2016 09:36 9,1 C 9,4 C 7,8 C 91 % 0 lf 1019,8 hPa 0,0 l/m 0 min 0 min 53 W/m 14,6 km/h (3 Bft) 97,87 %
24.11.2016 09:38 9,1 C 9,4 C 7,8 C 91 % 0 lf 1019,8 hPa 0,0 l/m 0 min 0 min 54 W/m 20,9 km/h (4 Bft) 100,00 %
24.11.2016 09:40 9,1 C 9,4 C 7,8 C 91 % 0 lf 1019,9 hPa 0,0 l/m 0 min 0 min 54 W/m 18,8 km/h (3 Bft) 97,87 %
24.11.2016 09:42 9,1 C 9,4 C 8,3 C 91 % 0 lf 1019,9 hPa 0,0 l/m 0 min 0 min 55 W/m 20,9 km/h (4 Bft) 97,87 %
24.11.2016 09:44 9,2 C 10,0 C 8,3 C 91 % 0 lf 1019,9 hPa 0,0 l/m 0 min 0 min 56 W/m 18,8 km/h (3 Bft) 97,87 %
24.11.2016 09:46 9,2 C 10,0 C 8,3 C 91 % 1 lf 1020,0 hPa 0,0 l/m 0 min 0 min 58 W/m 25,1 km/h (4 Bft) 97,83 %
24.11.2016 09:48 9,2 C 10,0 C 8,3 C 91 % 0 lf 1019,9 hPa 0,0 l/m 0 min 0 min 59 W/m 20,9 km/h (4 Bft) 95,74 %
24.11.2016 09:50 9,2 C 10,0 C 8,3 C 91 % 0 lf 1019,9 hPa 0,0 l/m 0 min 0 min 61 W/m 20,9 km/h (4 Bft) 95,74 %
24.11.2016 09:52 9,2 C 10,0 C 8,3 C 91 % 3 lf 1019,8 hPa 0,0 l/m 0 min 0 min 63 W/m 25,1 km/h (4 Bft) 97,87 %
24.11.2016 09:54 9,2 C 10,0 C 8,3 C 91 % 4 lf 1019,8 hPa 0,0 l/m 0 min 0 min 66 W/m 31,4 km/h (5 Bft) 97,87 %
24.11.2016 09:56 9,2 C 10,0 C 8,3 C 91 % 4 lf 1019,8 hPa 0,0 l/m 0 min 0 min 69 W/m 23,0 km/h (4 Bft) 97,87 %
24.11.2016 09:58 9,2 C 10,0 C 8,3 C 91 % 3 lf 1019,9 hPa 0,0 l/m 0 min 0 min 71 W/m 35,6 km/h (5 Bft) 95,65 %
24.11.2016 10:00 9,2 C 10,0 C 8,3 C 91 % 1 lf 1019,9 hPa 0,0 l/m 0 min 0 min 75 W/m 25,1 km/h (4 Bft) 95,74 %
24.11.2016 10:02 9,3 C 10,0 C 8,3 C 91 % 0 lf 1019,9 hPa 0,0 l/m 0 min 0 min 77 W/m 29,3 km/h (5 Bft) 95,74 %
24.11.2016 10:04 9,3 C 10,0 C 8,3 C 91 % 0 lf 1019,9 hPa 0,0 l/m 0 min 0 min 79 W/m 35,6 km/h (5 Bft) 97,87 %
24.11.2016 10:06 9,3 C 10,0 C 8,3 C 91 % 0 lf 1020,0 hPa 0,0 l/m 0 min 0 min 81 W/m 25,1 km/h (4 Bft) 97,87 %
24.11.2016 10:08 9,3 C 10,0 C 8,3 C 90 % 0 lf 1020,0 hPa 0,0 l/m 0 min 0 min 81 W/m 31,4 km/h (5 Bft) 87,23 %
24.11.2016 10:10 9,3 C 10,0 C 8,3 C 90 % 1 lf 1020,0 hPa 0,0 l/m 0 min 2 min 81 W/m 23,0 km/h (4 Bft) 95,65 %
24.11.2016 10:12 9,3 C 10,0 C 8,3 C 90 % 0 lf 1020,0 hPa 0,0 l/m 0 min 0 min 81 W/m 31,4 km/h (5 Bft) 97,87 %
24.11.2016 10:14 9,3 C 10,0 C 8,3 C 90 % 0 lf 1019,9 hPa 0,0 l/m 0 min 0 min 81 W/m 29,3 km/h (5 Bft) 93,62 %
24.11.2016 10:16 9,3 C 10,0 C 8,3 C 90 % 0 lf 1019,8 hPa 0,0 l/m 0 min 0 min 81 W/m 27,2 km/h (4 Bft) 93,62 %
24.11.2016 10:18 9,3 C 10,0 C 8,3 C 90 % 0 lf 1019,9 hPa 0,0 l/m 0 min 0 min 82 W/m 33,5 km/h (5 Bft) 95,74 %
24.11.2016 10:20 9,3 C 10,0 C 8,3 C 90 % 0 lf 1019,9 hPa 0,0 l/m 0 min 0 min 83 W/m 23,0 km/h (4 Bft) 93,62 %
24.11.2016 10:22 9,3 C 10,0 C 8,9 C 90 % 0 lf 1020,0 hPa 0,0 l/m 0 min 0 min 84 W/m 29,3 km/h (5 Bft) 93,48 %
24.11.2016 10:24 9,3 C 10,0 C 8,9 C 90 % 0 lf 1019,9 hPa 0,0 l/m 0 min 0 min 85 W/m 20,9 km/h (4 Bft) 93,62 %
24.11.2016 10:26 9,3 C 10,0 C 8,9 C 90 % 0 lf 1019,9 hPa 0,0 l/m 0 min 0 min 88 W/m 20,9 km/h (4 Bft) 95,74 %
24.11.2016 10:28 9,3 C 10,0 C 8,9 C 90 % 0 lf 1019,9 hPa 0,0 l/m 0 min 0 min 88 W/m 33,5 km/h (5 Bft) 93,62 %
24.11.2016 10:30 9,3 C 10,0 C 8,9 C 90 % 0 lf 1020,0 hPa 0,0 l/m 0 min 0 min 91 W/m 31,4 km/h (5 Bft) 95,74 %
24.11.2016 10:32 9,3 C 10,0 C 8,9 C 89 % 0 lf 1019,9 hPa 0,0 l/m 0 min 0 min 92 W/m 35,6 km/h (5 Bft) 93,62 %
24.11.2016 10:34 9,3 C 10,0 C 8,9 C 89 % 0 lf 1019,9 hPa 0,0 l/m 0 min 0 min 93 W/m 23,0 km/h (4 Bft) 95,65 %
24.11.2016 10:36 9,3 C 10,0 C 8,9 C 89 % 0 lf 1019,9 hPa 0,0 l/m 0 min 0 min 95 W/m 29,3 km/h (5 Bft) 93,62 %
24.11.2016 10:38 9,3 C 10,0 C 8,9 C 89 % 0 lf 1019,9 hPa 0,0 l/m 0 min 0 min 95 W/m 35,6 km/h (5 Bft) 95,74 %
24.11.2016 10:40 9,3 C 10,0 C 8,9 C 89 % 0 lf 1019,9 hPa 0,0 l/m 0 min 0 min 97 W/m 41,8 km/h (6 Bft) 95,74 %
24.11.2016 10:42 9,3 C 10,0 C 8,9 C 89 % 0 lf 1019,9 hPa 0,0 l/m 0 min 0 min 98 W/m 31,4 km/h (5 Bft) 93,62 %
24.11.2016 10:44 9,3 C 10,0 C 8,9 C 89 % 0 lf 1019,9 hPa 0,0 l/m 0 min 0 min 98 W/m 33,5 km/h (5 Bft) 95,65 %
24.11.2016 10:46 9,3 C 10,0 C 8,9 C 89 % 0 lf 1020,0 hPa 0,0 l/m 0 min 0 min 99 W/m 27,2 km/h (4 Bft) 95,74 %
24.11.2016 10:48 9,3 C 10,0 C 8,9 C 89 % 0 lf 1020,0 hPa 0,0 l/m 0 min 0 min 100 W/m 27,2 km/h (4 Bft) 97,87 %
24.11.2016 10:50 9,4 C 10,0 C 8,9 C 89 % 0 lf 1020,0 hPa 0,0 l/m 0 min 0 min 100 W/m 27,2 km/h (4 Bft) 97,87 %
24.11.2016 10:52 9,3 C 10,0 C 8,9 C 89 % 0 lf 1020,0 hPa 0,0 l/m 0 min 0 min 100 W/m 31,4 km/h (5 Bft) 95,74 %
24.11.2016 10:54 9,4 C 10,0 C 8,9 C 89 % 0 lf 1020,1 hPa 0,0 l/m 0 min 0 min 100 W/m 31,4 km/h (5 Bft) 97,87 %
24.11.2016 10:56 9,4 C 10,0 C 8,9 C 89 % 0 lf 1020,1 hPa 0,0 l/m 0 min 0 min 100 W/m 33,5 km/h (5 Bft) 95,65 %
24.11.2016 10:58 9,4 C 10,0 C 8,9 C 89 % 0 lf 1020,1 hPa 0,0 l/m 0 min 0 min 100 W/m 25,1 km/h (4 Bft) 97,87 %
24.11.2016 11:00 9,4 C 10,0 C 8,9 C 89 % 0 lf 1020,1 hPa 0,0 l/m 0 min 0 min 102 W/m 35,6 km/h (5 Bft) 97,87 %
24.11.2016 11:02 9,4 C 10,6 C 8,9 C 88 % 0 lf 1020,0 hPa 0,0 l/m 0 min 0 min 102 W/m 29,3 km/h (5 Bft) 95,74 %
24.11.2016 11:04 9,4 C 10,6 C 8,9 C 88 % 0 lf 1020,0 hPa 0,0 l/m 0 min 0 min 102 W/m 27,2 km/h (4 Bft) 97,87 %
24.11.2016 11:06 9,4 C 10,6 C 8,9 C 88 % 0 lf 1020,0 hPa 0,0 l/m 0 min 0 min 102 W/m 29,3 km/h (5 Bft) 95,74 %
24.11.2016 11:08 9,4 C 10,6 C 8,9 C 88 % 0 lf 1020,0 hPa 0,0 l/m 0 min 0 min 102 W/m 33,5 km/h (5 Bft) 97,83 %
24.11.2016 11:10 9,4 C 10,6 C 8,9 C 88 % 0 lf 1020,0 hPa 0,0 l/m 0 min 0 min 102 W/m 25,1 km/h (4 Bft) 97,87 %
24.11.2016 11:12 9,4 C 10,6 C 8,9 C 88 % 0 lf 1020,0 hPa 0,0 l/m 0 min 0 min 103 W/m 31,4 km/h (5 Bft) 97,87 %
24.11.2016 11:14 9,4 C 10,6 C 8,9 C 88 % 0 lf 1020,0 hPa 0,0 l/m 0 min 0 min 105 W/m 29,3 km/h (5 Bft) 93,62 %
24.11.2016 11:16 9,5 C 10,6 C 8,9 C 88 % 0 lf 1020,0 hPa 0,0 l/m 0 min 0 min 106 W/m 27,2 km/h (4 Bft) 93,62 %
24.11.2016 11:18 9,5 C 10,6 C 8,9 C 88 % 0 lf 1020,0 hPa 0,0 l/m 0 min 0 min 106 W/m 29,3 km/h (5 Bft) 91,49 %
24.11.2016 11:20 9,5 C 10,6 C 8,9 C 88 % 0 lf 1019,9 hPa 0,0 l/m 0 min 0 min 105 W/m 37,7 km/h (5 Bft) 93,48 %
24.11.2016 11:22 9,5 C 10,6 C 8,9 C 88 % 0 lf 1019,9 hPa 0,0 l/m 0 min 0 min 104 W/m 29,3 km/h (5 Bft) 89,36 %
24.11.2016 11:24 9,5 C 10,6 C 8,9 C 88 % 0 lf 1019,8 hPa 0,0 l/m 0 min 0 min 103 W/m 29,3 km/h (5 Bft) 97,87 %
24.11.2016 11:26 9,5 C 10,6 C 8,9 C 88 % 0 lf 1019,8 hPa 0,0 l/m 0 min 0 min 104 W/m 33,5 km/h (5 Bft) 91,49 %
24.11.2016 11:28 9,6 C 10,6 C 8,9 C 88 % 0 lf 1019,8 hPa 0,0 l/m 0 min 0 min 105 W/m 29,3 km/h (5 Bft) 93,62 %
24.11.2016 11:30 9,6 C 10,6 C 8,9 C 88 % 0 lf 1019,9 hPa 0,0 l/m 0 min 0 min 105 W/m 23,0 km/h (4 Bft) 91,49 %
24.11.2016 11:32 9,6 C 10,6 C 8,9 C 88 % 0 lf 1019,9 hPa 0,0 l/m 0 min 0 min 104 W/m 23,0 km/h (4 Bft) 93,48 %
24.11.2016 11:34 9,6 C 10,6 C 8,9 C 88 % 0 lf 1020,0 hPa 0,0 l/m 0 min 0 min 104 W/m 25,1 km/h (4 Bft) 91,49 %
24.11.2016 11:38 9,6 C 10,6 C 9,4 C 88 % 0 lf 1019,9 hPa 0,0 l/m 0 min 0 min 101 W/m 31,4 km/h (5 Bft) 95,74 %
24.11.2016 11:40 9,6 C 10,6 C 9,4 C 88 % 0 lf 1019,9 hPa 0,0 l/m 0 min 0 min 100 W/m 23,0 km/h (4 Bft) 89,36 %
24.11.2016 11:42 9,6 C 10,6 C 9,4 C 88 % 0 lf 1019,9 hPa 0,0 l/m 0 min 0 min 98 W/m 27,2 km/h (4 Bft) 95,74 %
24.11.2016 11:44 9,6 C 10,6 C 8,9 C 88 % 0 lf 1019,8 hPa 0,0 l/m 0 min 0 min 98 W/m 33,5 km/h (5 Bft) 95,65 %
24.11.2016 11:46 9,6 C 10,6 C 8,9 C 87 % 0 lf 1019,9 hPa 0,0 l/m 0 min 0 min 99 W/m 29,3 km/h (5 Bft) 95,74 %
24.11.2016 11:48 9,7 C 10,6 C 8,9 C 87 % 0 lf 1019,8 hPa 0,0 l/m 0 min 0 min 100 W/m 27,2 km/h (4 Bft) 89,36 %
24.11.2016 11:50 9,6 C 10,6 C 8,9 C 87 % 0 lf 1019,8 hPa 0,0 l/m 0 min 0 min 102 W/m 27,2 km/h (4 Bft) 93,62 %
24.11.2016 11:52 9,7 C 10,6 C 8,9 C 87 % 0 lf 1019,7 hPa 0,0 l/m 0 min 0 min 105 W/m 18,8 km/h (3 Bft) 93,62 %
24.11.2016 11:54 9,7 C 10,6 C 9,4 C 87 % 0 lf 1019,7 hPa 0,0 l/m 0 min 0 min 111 W/m 25,1 km/h (4 Bft) 95,74 %
24.11.2016 11:56 9,7 C 10,6 C 8,9 C 87 % 0 lf 1019,7 hPa 0,0 l/m 0 min 0 min 117 W/m 35,6 km/h (5 Bft) 95,65 %
24.11.2016 11:58 9,7 C 10,6 C 8,9 C 87 % 0 lf 1019,8 hPa 0,0 l/m 0 min 0 min 127 W/m 37,7 km/h (5 Bft) 91,49 %
24.11.2016 12:00 9,7 C 11,1 C 9,4 C 87 % 0 lf 1019,8 hPa 0,0 l/m 0 min 0 min 143 W/m 35,6 km/h (5 Bft) 100,00 %
24.11.2016 12:02 9,7 C 11,1 C 9,4 C 87 % 0 lf 1019,9 hPa 0,0 l/m 0 min 0 min 150 W/m 27,2 km/h (4 Bft) 100,00 %
24.11.2016 12:06 9,7 C 11,7 C 9,4 C 87 % 0 lf 1019,8 hPa 0,0 l/m 2 min 0 min 177 W/m 27,2 km/h (4 Bft) 96,81 %
24.11.2016 12:08 9,8 C 12,2 C 10,0 C 87 % 0 lf 1019,8 hPa 0,0 l/m 2 min 0 min 216 W/m 20,9 km/h (4 Bft) 95,65 %
24.11.2016 12:10 9,8 C 12,8 C 10,0 C 87 % 0 lf 1019,7 hPa 0,0 l/m 2 min 0 min 233 W/m 25,1 km/h (4 Bft) 95,74 %
24.11.2016 12:12 9,9 C 12,8 C 10,0 C 87 % 0 lf 1019,8 hPa 0,0 l/m 2 min 0 min 234 W/m 20,9 km/h (4 Bft) 100,00 %
24.11.2016 12:14 9,9 C 13,3 C 10,0 C 87 % 0 lf 1019,8 hPa 0,0 l/m 2 min 0 min 246 W/m 27,2 km/h (4 Bft) 97,87 %
24.11.2016 12:16 9,9 C 13,3 C 10,0 C 87 % 0 lf 1019,9 hPa 0,0 l/m 2 min 0 min 263 W/m 31,4 km/h (5 Bft) 100,00 %
24.11.2016 12:18 10,0 C 13,3 C 10,0 C 87 % 0 lf 1020,0 hPa 0,0 l/m 2 min 0 min 267 W/m 33,5 km/h (5 Bft) 95,65 %
24.11.2016 12:20 10,1 C 13,3 C 10,0 C 87 % 0 lf 1019,9 hPa 0,0 l/m 2 min 0 min 274 W/m 37,7 km/h (5 Bft) 100,00 %
24.11.2016 12:22 10,1 C 13,3 C 10,0 C 87 % 0 lf 1020,0 hPa 0,0 l/m 2 min 0 min 270 W/m 37,7 km/h (5 Bft) 93,62 %
24.11.2016 12:24 10,2 C 13,3 C 10,0 C 86 % 0 lf 1019,9 hPa 0,0 l/m 2 min 0 min 250 W/m 37,7 km/h (5 Bft) 95,74 %
24.11.2016 12:26 10,2 C 12,8 C 10,0 C 86 % 0 lf 1019,9 hPa 0,0 l/m 2 min 0 min 248 W/m 27,2 km/h (4 Bft) 95,74 %
24.11.2016 12:28 10,2 C 12,8 C 10,0 C 86 % 0 lf 1019,8 hPa 0,0 l/m 2 min 0 min 243 W/m 31,4 km/h (5 Bft) 95,74 %
24.11.2016 12:30 10,3 C 13,3 C 10,0 C 86 % 0 lf 1020,0 hPa 0,0 l/m 2 min 0 min 268 W/m 31,4 km/h (5 Bft) 97,83 %
24.11.2016 12:32 10,3 C 13,9 C 10,6 C 86 % 0 lf 1019,8 hPa 0,0 l/m 2 min 0 min 272 W/m 29,3 km/h (5 Bft) 93,62 %
24.11.2016 12:34 10,4 C 13,3 C 10,6 C 86 % 0 lf 1019,8 hPa 0,0 l/m 2 min 0 min 268 W/m 48,1 km/h (6 Bft) 97,87 %
24.11.2016 12:36 10,4 C 13,3 C 10,0 C 86 % 0 lf 1019,7 hPa 0,0 l/m 2 min 0 min 260 W/m 35,6 km/h (5 Bft) 95,74 %
24.11.2016 12:38 10,4 C 13,3 C 10,0 C 85 % 0 lf 1019,7 hPa 0,0 l/m 2 min 0 min 250 W/m 27,2 km/h (4 Bft) 95,74 %
24.11.2016 12:40 10,5 C 13,3 C 10,0 C 85 % 0 lf 1019,7 hPa 0,0 l/m 2 min 0 min 234 W/m 31,4 km/h (5 Bft) 97,87 %
24.11.2016 12:42 10,5 C 13,9 C 10,0 C 85 % 0 lf 1019,8 hPa 0,0 l/m 2 min 0 min 242 W/m 20,9 km/h (4 Bft) 93,48 %
24.11.2016 12:44 10,6 C 13,9 C 10,0 C 85 % 0 lf 1019,8 hPa 0,0 l/m 2 min 0 min 241 W/m 39,7 km/h (6 Bft) 93,62 %
24.11.2016 12:46 10,6 C 13,3 C 10,0 C 85 % 0 lf 1020,0 hPa 0,0 l/m 2 min 0 min 211 W/m 35,6 km/h (5 Bft) 97,87 %
24.11.2016 12:48 10,6 C 12,2 C 10,0 C 85 % 0 lf 1019,9 hPa 0,0 l/m 2 min 0 min 186 W/m 39,7 km/h (6 Bft) 97,87 %
24.11.2016 12:50 10,6 C 12,8 C 10,0 C 85 % 0 lf 1019,9 hPa 0,0 l/m 2 min 0 min 194 W/m 35,6 km/h (5 Bft) 95,74 %
24.11.2016 12:52 10,5 C 12,8 C 10,0 C 85 % 0 lf 1019,8 hPa 0,0 l/m 2 min 0 min 220 W/m 27,2 km/h (4 Bft) 97,87 %
24.11.2016 12:54 10,5 C 12,8 C 10,0 C 85 % 0 lf 1019,8 hPa 0,0 l/m 2 min 0 min 188 W/m 31,4 km/h (5 Bft) 95,65 %
24.11.2016 12:56 10,6 C 12,2 C 10,0 C 85 % 0 lf 1019,9 hPa 0,0 l/m 2 min 0 min 167 W/m 33,5 km/h (5 Bft) 97,87 %
24.11.2016 12:58 10,5 C 12,2 C 10,0 C 85 % 0 lf 1019,7 hPa 0,0 l/m 2 min 0 min 194 W/m 37,7 km/h (5 Bft) 97,87 %
24.11.2016 13:00 10,5 C 12,2 C 9,4 C 85 % 0 lf 1019,8 hPa 0,0 l/m 0 min 0 min 151 W/m 35,6 km/h (5 Bft) 100,00 %
24.11.2016 13:02 10,5 C 12,2 C 9,4 C 85 % 0 lf 1019,7 hPa 0,0 l/m 2 min 0 min 170 W/m 35,6 km/h (5 Bft) 95,74 %
24.11.2016 13:04 10,4 C 11,7 C 9,4 C 84 % 0 lf 1019,8 hPa 0,0 l/m 0 min 0 min 138 W/m 29,3 km/h (5 Bft) 100,00 %
24.11.2016 13:06 10,4 C 11,7 C 9,4 C 84 % 0 lf 1019,8 hPa 0,0 l/m 2 min 0 min 151 W/m 33,5 km/h (5 Bft) 100,00 %
24.11.2016 13:08 10,4 C 11,7 C 9,4 C 84 % 0 lf 1019,7 hPa 0,0 l/m 2 min 0 min 162 W/m 31,4 km/h (5 Bft) 95,74 %
24.11.2016 13:10 10,4 C 11,7 C 9,4 C 84 % 0 lf 1019,8 hPa 0,0 l/m 0 min 0 min 143 W/m 35,6 km/h (5 Bft) 97,87 %
24.11.2016 13:12 10,3 C 11,1 C 9,4 C 84 % 0 lf 1019,8 hPa 0,0 l/m 0 min 0 min 123 W/m 27,2 km/h (4 Bft) 100,00 %
24.11.2016 13:14 10,3 C 11,1 C 8,9 C 84 % 0 lf 1019,7 hPa 0,0 l/m 0 min 0 min 119 W/m 31,4 km/h (5 Bft) 100,00 %
24.11.2016 13:16 10,2 C 11,1 C 8,9 C 84 % 0 lf 1019,7 hPa 0,0 l/m 0 min 0 min 119 W/m 18,8 km/h (3 Bft) 95,74 %
24.11.2016 13:18 10,2 C 11,1 C 8,9 C 85 % 0 lf 1019,8 hPa 0,0 l/m 0 min 0 min 116 W/m 29,3 km/h (5 Bft) 97,83 %
24.11.2016 13:20 10,2 C 11,1 C 8,9 C 85 % 0 lf 1019,7 hPa 0,0 l/m 0 min 0 min 109 W/m 27,2 km/h (4 Bft) 95,74 %
24.11.2016 13:22 10,1 C 11,1 C 8,9 C 85 % 0 lf 1019,7 hPa 0,0 l/m 0 min 0 min 107 W/m 20,9 km/h (4 Bft) 97,87 %
24.11.2016 13:24 10,1 C 11,1 C 8,9 C 85 % 0 lf 1019,7 hPa 0,0 l/m 0 min 0 min 104 W/m 18,8 km/h (3 Bft) 95,74 %
24.11.2016 13:26 10,1 C 11,1 C 8,9 C 85 % 0 lf 1019,6 hPa 0,0 l/m 0 min 0 min 100 W/m 31,4 km/h (5 Bft) 97,87 %
24.11.2016 13:28 10,0 C 11,1 C 8,9 C 85 % 0 lf 1019,6 hPa 0,0 l/m 0 min 0 min 100 W/m 27,2 km/h (4 Bft) 97,83 %
24.11.2016 13:30 10,0 C 10,6 C 8,9 C 85 % 0 lf 1019,7 hPa 0,0 l/m 0 min 0 min 93 W/m 23,0 km/h (4 Bft) 97,87 %
24.11.2016 13:32 9,9 C 10,6 C 8,9 C 85 % 0 lf 1019,7 hPa 0,0 l/m 0 min 0 min 96 W/m 29,3 km/h (5 Bft) 97,87 %
24.11.2016 13:34 9,9 C 10,6 C 8,9 C 85 % 0 lf 1019,7 hPa 0,0 l/m 0 min 0 min 95 W/m 27,2 km/h (4 Bft) 95,74 %
24.11.2016 13:36 9,9 C 10,6 C 8,9 C 86 % 0 lf 1019,7 hPa 0,0 l/m 0 min 0 min 95 W/m 25,1 km/h (4 Bft) 95,74 %
24.11.2016 13:38 9,9 C 10,6 C 8,9 C 86 % 0 lf 1019,6 hPa 0,0 l/m 0 min 0 min 94 W/m 23,0 km/h (4 Bft) 93,62 %
24.11.2016 13:40 9,8 C 10,6 C 8,3 C 86 % 0 lf 1019,6 hPa 0,0 l/m 0 min 0 min 93 W/m 31,4 km/h (5 Bft) 97,83 %
24.11.2016 13:42 9,8 C 10,6 C 8,3 C 86 % 0 lf 1019,6 hPa 0,0 l/m 0 min 0 min 94 W/m 43,9 km/h (6 Bft) 95,74 %
24.11.2016 13:44 9,7 C 10,6 C 8,3 C 86 % 0 lf 1019,6 hPa 0,0 l/m 0 min 0 min 92 W/m 39,7 km/h (6 Bft) 97,87 %
24.11.2016 13:46 9,7 C 10,6 C 8,3 C 86 % 0 lf 1019,5 hPa 0,0 l/m 0 min 0 min 93 W/m 33,5 km/h (5 Bft) 97,87 %
24.11.2016 13:48 9,7 C 10,6 C 8,3 C 86 % 0 lf 1019,5 hPa 0,0 l/m 0 min 0 min 93 W/m 35,6 km/h (5 Bft) 93,62 %
24.11.2016 13:50 9,6 C 10,6 C 8,3 C 86 % 0 lf 1019,5 hPa 0,0 l/m 0 min 0 min 95 W/m 35,6 km/h (5 Bft) 93,62 %
24.11.2016 13:52 9,6 C 10,6 C 8,3 C 86 % 0 lf 1019,6 hPa 0,0 l/m 0 min 0 min 97 W/m 35,6 km/h (5 Bft) 93,48 %
24.11.2016 13:54 9,6 C 10,6 C 8,3 C 86 % 0 lf 1019,5 hPa 0,0 l/m 0 min 0 min 98 W/m 37,7 km/h (5 Bft) 95,74 %
24.11.2016 13:56 9,6 C 10,6 C 8,3 C 87 % 0 lf 1019,4 hPa 0,0 l/m 0 min 0 min 98 W/m 27,2 km/h (4 Bft) 93,62 %
24.11.2016 13:58 9,6 C 10,6 C 8,3 C 87 % 0 lf 1019,4 hPa 0,0 l/m 0 min 0 min 101 W/m 27,2 km/h (4 Bft) 95,74 %
24.11.2016 14:00 9,6 C 10,6 C 8,3 C 87 % 0 lf 1019,6 hPa 0,0 l/m 0 min 0 min 103 W/m 37,7 km/h (5 Bft) 93,62 %
24.11.2016 14:02 9,5 C 10,6 C 8,3 C 87 % 0 lf 1019,5 hPa 0,0 l/m 0 min 0 min 105 W/m 29,3 km/h (5 Bft) 91,49 %
24.11.2016 14:04 9,5 C 10,6 C 8,3 C 87 % 0 lf 1019,5 hPa 0,0 l/m 0 min 0 min 109 W/m 33,5 km/h (5 Bft) 93,48 %
24.11.2016 14:06 9,5 C 10,6 C 8,3 C 87 % 0 lf 1019,6 hPa 0,0 l/m 0 min 0 min 114 W/m 31,4 km/h (5 Bft) 87,23 %
24.11.2016 14:08 9,6 C 11,1 C 8,3 C 87 % 0 lf 1019,6 hPa 0,0 l/m 2 min 0 min 125 W/m 31,4 km/h (5 Bft) 95,74 %
24.11.2016 14:10 9,5 C 11,7 C 8,9 C 87 % 0 lf 1019,6 hPa 0,0 l/m 2 min 0 min 137 W/m 23,0 km/h (4 Bft) 93,62 %
24.11.2016 14:12 9,6 C 11,7 C 8,9 C 87 % 0 lf 1019,6 hPa 0,0 l/m 2 min 0 min 145 W/m 33,5 km/h (5 Bft) 89,36 %
24.11.2016 14:14 9,6 C 12,2 C 8,9 C 87 % 0 lf 1019,6 hPa 0,0 l/m 2 min 0 min 153 W/m 20,9 km/h (4 Bft) 93,62 %
24.11.2016 14:16 9,6 C 12,8 C 8,9 C 87 % 0 lf 1019,5 hPa 0,0 l/m 2 min 0 min 159 W/m 29,3 km/h (5 Bft) 91,30 %
24.11.2016 14:18 9,6 C 12,8 C 8,9 C 87 % 0 lf 1019,6 hPa 0,0 l/m 2 min 0 min 161 W/m 33,5 km/h (5 Bft) 93,62 %
24.11.2016 14:20 9,7 C 12,8 C 8,9 C 87 % 0 lf 1019,7 hPa 0,0 l/m 2 min 0 min 164 W/m 39,7 km/h (6 Bft) 93,62 %
24.11.2016 14:22 9,7 C 13,3 C 8,9 C 87 % 0 lf 1019,5 hPa 0,0 l/m 2 min 0 min 163 W/m 35,6 km/h (5 Bft) 91,49 %
24.11.2016 14:24 9,7 C 12,8 C 8,9 C 87 % 0 lf 1019,5 hPa 0,0 l/m 2 min 0 min 158 W/m 39,7 km/h (6 Bft) 93,62 %
24.11.2016 14:26 9,7 C 12,2 C 8,9 C 87 % 0 lf 1019,5 hPa 0,0 l/m 2 min 0 min 126 W/m 29,3 km/h (5 Bft) 93,48 %
24.11.2016 14:28 9,7 C 12,2 C 8,9 C 87 % 0 lf 1019,6 hPa 0,0 l/m 0 min 0 min 107 W/m 27,2 km/h (4 Bft) 97,87 %
24.11.2016 14:30 9,8 C 11,7 C 8,9 C 87 % 0 lf 1019,5 hPa 0,0 l/m 0 min 0 min 104 W/m 29,3 km/h (5 Bft) 91,49 %
24.11.2016 14:32 9,8 C 11,7 C 8,9 C 87 % 0 lf 1019,5 hPa 0,0 l/m 2 min 0 min 122 W/m 29,3 km/h (5 Bft) 93,62 %
24.11.2016 14:34 9,8 C 11,7 C 8,9 C 87 % 0 lf 1019,5 hPa 0,0 l/m 2 min 0 min 125 W/m 37,7 km/h (5 Bft) 93,62 %
24.11.2016 14:36 9,8 C 11,1 C 8,9 C 86 % 0 lf 1019,4 hPa 0,0 l/m 2 min 0 min 121 W/m 37,7 km/h (5 Bft) 93,62 %
24.11.2016 14:38 9,8 C 11,1 C 8,9 C 86 % 0 lf 1019,5 hPa 0,0 l/m 2 min 0 min 117 W/m 33,5 km/h (5 Bft) 91,49 %
24.11.2016 14:40 9,8 C 11,1 C 8,9 C 86 % 0 lf 1019,5 hPa 0,0 l/m 2 min 0 min 113 W/m 31,4 km/h (5 Bft) 86,96 %
24.11.2016 14:42 9,7 C 10,6 C 8,9 C 86 % 0 lf 1019,4 hPa 0,0 l/m 2 min 0 min 110 W/m 25,1 km/h (4 Bft) 91,49 %
24.11.2016 14:44 9,7 C 10,6 C 8,9 C 86 % 0 lf 1019,5 hPa 0,0 l/m 2 min 0 min 111 W/m 31,4 km/h (5 Bft) 93,62 %
24.11.2016 14:46 9,7 C 10,6 C 8,9 C 86 % 0 lf 1019,5 hPa 0,0 l/m 2 min 0 min 111 W/m 37,7 km/h (5 Bft) 93,62 %
24.11.2016 14:48 9,7 C 10,6 C 8,9 C 86 % 0 lf 1019,4 hPa 0,0 l/m 2 min 0 min 108 W/m 33,5 km/h (5 Bft) 95,74 %
24.11.2016 14:50 9,7 C 10,6 C 8,3 C 86 % 0 lf 1019,4 hPa 0,0 l/m 2 min 0 min 103 W/m 37,7 km/h (5 Bft) 95,65 %
24.11.2016 14:52 9,7 C 10,6 C 8,3 C 86 % 0 lf 1019,4 hPa 0,0 l/m 2 min 0 min 98 W/m 35,6 km/h (5 Bft) 95,74 %
24.11.2016 14:54 9,7 C 10,6 C 8,3 C 86 % 0 lf 1019,4 hPa 0,0 l/m 2 min 0 min 100 W/m 23,0 km/h (4 Bft) 93,62 %
24.11.2016 14:56 9,7 C 10,6 C 8,3 C 86 % 0 lf 1019,5 hPa 0,0 l/m 2 min 0 min 102 W/m 33,5 km/h (5 Bft) 93,62 %
24.11.2016 14:58 9,6 C 10,6 C 8,3 C 86 % 0 lf 1019,5 hPa 0,0 l/m 2 min 0 min 96 W/m 35,6 km/h (5 Bft) 93,62 %
24.11.2016 15:00 9,6 C 10,6 C 8,3 C 86 % 0 lf 1019,5 hPa 0,0 l/m 2 min 0 min 94 W/m 33,5 km/h (5 Bft) 93,62 %
24.11.2016 15:02 9,6 C 10,6 C 8,3 C 86 % 0 lf 1019,5 hPa 0,0 l/m 2 min 0 min 91 W/m 29,3 km/h (5 Bft) 95,65 %
24.11.2016 15:04 9,6 C 10,6 C 8,3 C 87 % 0 lf 1019,4 hPa 0,0 l/m 2 min 0 min 91 W/m 18,8 km/h (3 Bft) 91,49 %
24.11.2016 15:06 9,6 C 10,6 C 8,3 C 87 % 0 lf 1019,3 hPa 0,0 l/m 2 min 0 min 88 W/m 35,6 km/h (5 Bft) 95,74 %
24.11.2016 15:08 9,5 C 10,0 C 8,3 C 86 % 0 lf 1019,3 hPa 0,0 l/m 2 min 0 min 84 W/m 25,1 km/h (4 Bft) 100,00 %
24.11.2016 15:10 9,5 C 10,0 C 8,3 C 86 % 0 lf 1019,4 hPa 0,0 l/m 2 min 0 min 81 W/m 29,3 km/h (5 Bft) 97,87 %
24.11.2016 15:12 9,5 C 10,6 C 8,3 C 87 % 0 lf 1019,4 hPa 0,0 l/m 2 min 0 min 82 W/m 25,1 km/h (4 Bft) 100,00 %
24.11.2016 15:14 9,5 C 10,6 C 8,3 C 87 % 0 lf 1019,4 hPa 0,0 l/m 2 min 0 min 82 W/m 29,3 km/h (5 Bft) 93,48 %
24.11.2016 15:16 9,4 C 10,0 C 8,3 C 87 % 0 lf 1019,3 hPa 0,0 l/m 2 min 0 min 80 W/m 27,2 km/h (4 Bft) 97,87 %
24.11.2016 15:18 9,4 C 10,0 C 8,3 C 87 % 0 lf 1019,3 hPa 0,0 l/m 0 min 0 min 72 W/m 27,2 km/h (4 Bft) 97,87 %
24.11.2016 15:20 9,4 C 10,0 C 7,8 C 87 % 0 lf 1019,3 hPa 0,0 l/m 0 min 0 min 64 W/m 29,3 km/h (5 Bft) 100,00 %
24.11.2016 15:22 9,4 C 10,0 C 7,8 C 87 % 0 lf 1019,3 hPa 0,0 l/m 0 min 0 min 66 W/m 33,5 km/h (5 Bft) 100,00 %
24.11.2016 15:24 9,4 C 10,0 C 7,8 C 87 % 0 lf 1019,3 hPa 0,0 l/m 2 min 0 min 70 W/m 25,1 km/h (4 Bft) 97,87 %
24.11.2016 15:26 9,4 C 10,0 C 7,8 C 87 % 0 lf 1019,4 hPa 0,0 l/m 2 min 0 min 70 W/m 33,5 km/h (5 Bft) 100,00 %
24.11.2016 15:28 9,3 C 10,0 C 7,8 C 87 % 0 lf 1019,4 hPa 0,0 l/m 2 min 0 min 67 W/m 29,3 km/h (5 Bft) 95,74 %
24.11.2016 15:30 9,3 C 10,0 C 7,8 C 87 % 0 lf 1019,4 hPa 0,0 l/m 2 min 0 min 67 W/m 29,3 km/h (5 Bft) 97,87 %
24.11.2016 15:32 9,3 C 10,0 C 7,8 C 87 % 0 lf 1019,4 hPa 0,0 l/m 0 min 0 min 57 W/m 29,3 km/h (5 Bft) 100,00 %
24.11.2016 15:34 9,3 C 9,4 C 7,8 C 87 % 0 lf 1019,4 hPa 0,0 l/m 0 min 0 min 50 W/m 33,5 km/h (5 Bft) 100,00 %
24.11.2016 15:36 9,3 C 9,4 C 7,8 C 87 % 0 lf 1019,3 hPa 0,0 l/m 0 min 0 min 46 W/m 31,4 km/h (5 Bft) 97,83 %
24.11.2016 15:38 9,2 C 9,4 C 7,8 C 87 % 0 lf 1019,3 hPa 0,0 l/m 0 min 0 min 43 W/m 33,5 km/h (5 Bft) 100,00 %
24.11.2016 15:40 9,2 C 9,4 C 7,8 C 87 % 0 lf 1019,4 hPa 0,0 l/m 0 min 0 min 41 W/m 25,1 km/h (4 Bft) 97,87 %
24.11.2016 15:42 9,2 C 9,4 C 7,8 C 87 % 0 lf 1019,4 hPa 0,0 l/m 0 min 0 min 40 W/m 23,0 km/h (4 Bft) 100,00 %
24.11.2016 15:44 9,2 C 9,4 C 7,8 C 87 % 0 lf 1019,5 hPa 0,0 l/m 0 min 0 min 42 W/m 23,0 km/h (4 Bft) 97,87 %
24.11.2016 15:46 9,2 C 9,4 C 7,8 C 88 % 0 lf 1019,5 hPa 0,0 l/m 0 min 0 min 40 W/m 27,2 km/h (4 Bft) 100,00 %
24.11.2016 15:48 9,1 C 9,4 C 7,8 C 88 % 0 lf 1019,5 hPa 0,0 l/m 0 min 0 min 37 W/m 29,3 km/h (5 Bft) 97,87 %
24.11.2016 15:50 9,1 C 8,9 C 7,8 C 88 % 0 lf 1019,5 hPa 0,0 l/m 0 min 0 min 33 W/m 25,1 km/h (4 Bft) 100,00 %
24.11.2016 15:52 9,1 C 8,9 C 7,8 C 88 % 0 lf 1019,4 hPa 0,0 l/m 0 min 0 min 31 W/m 29,3 km/h (5 Bft) 100,00 %
24.11.2016 15:54 9,0 C 8,9 C 7,2 C 88 % 0 lf 1019,4 hPa 0,0 l/m 0 min 0 min 28 W/m 29,3 km/h (5 Bft) 100,00 %
24.11.2016 15:56 9,0 C 8,9 C 7,2 C 88 % 0 lf 1019,3 hPa 0,0 l/m 0 min 0 min 26 W/m 27,2 km/h (4 Bft) 100,00 %
24.11.2016 15:58 8,9 C 8,9 C 7,2 C 88 % 0 lf 1019,3 hPa 0,0 l/m 0 min 0 min 25 W/m 33,5 km/h (5 Bft) 95,74 %
24.11.2016 16:00 8,9 C 8,9 C 7,2 C 88 % 0 lf 1019,3 hPa 0,0 l/m 0 min 0 min 23 W/m 18,8 km/h (3 Bft) 97,83 %
24.11.2016 16:02 8,9 C 8,9 C 7,2 C 88 % 0 lf 1019,2 hPa 0,0 l/m 0 min 0 min 22 W/m 27,2 km/h (4 Bft) 97,87 %
24.11.2016 16:04 8,9 C 8,9 C 7,2 C 88 % 0 lf 1019,2 hPa 0,0 l/m 0 min 0 min 21 W/m 29,3 km/h (5 Bft) 95,74 %
24.11.2016 16:06 8,8 C 8,3 C 7,2 C 88 % 0 lf 1019,2 hPa 0,0 l/m 0 min 0 min 19 W/m 20,9 km/h (4 Bft) 97,87 %
24.11.2016 16:08 8,8 C 8,3 C 7,2 C 88 % 0 lf 1019,3 hPa 0,0 l/m 0 min 0 min 18 W/m 20,9 km/h (4 Bft) 97,87 %
24.11.2016 16:10 8,7 C 8,3 C 7,2 C 88 % 0 lf 1019,2 hPa 0,0 l/m 0 min 0 min 18 W/m 27,2 km/h (4 Bft) 97,87 %
24.11.2016 16:12 8,7 C 8,3 C 7,2 C 88 % 0 lf 1019,3 hPa 0,0 l/m 0 min 0 min 16 W/m 27,2 km/h (4 Bft) 100,00 %
24.11.2016 16:14 8,7 C 8,3 C 7,2 C 88 % 0 lf 1019,3 hPa 0,0 l/m 0 min 0 min 15 W/m 29,3 km/h (5 Bft) 100,00 %
24.11.2016 16:16 8,7 C 8,3 C 7,2 C 89 % 0 lf 1019,3 hPa 0,0 l/m 0 min 0 min 14 W/m 29,3 km/h (5 Bft) 97,87 %
24.11.2016 16:18 8,7 C 8,3 C 6,7 C 89 % 0 lf 1019,3 hPa 0,0 l/m 0 min 0 min 13 W/m 27,2 km/h (4 Bft) 97,87 %
24.11.2016 16:20 8,6 C 8,3 C 6,7 C 89 % 0 lf 1019,3 hPa 0,0 l/m 0 min 0 min 12 W/m 29,3 km/h (5 Bft) 97,87 %
24.11.2016 16:22 8,6 C 8,3 C 7,2 C 89 % 0 lf 1019,4 hPa 0,0 l/m 0 min 0 min 12 W/m 35,6 km/h (5 Bft) 95,74 %
24.11.2016 16:24 8,6 C 8,3 C 6,7 C 89 % 0 lf 1019,5 hPa 0,0 l/m 0 min 0 min 11 W/m 25,1 km/h (4 Bft) 97,83 %
24.11.2016 16:26 8,6 C 8,3 C 6,7 C 89 % 0 lf 1019,5 hPa 0,0 l/m 0 min 0 min 11 W/m 27,2 km/h (4 Bft) 100,00 %
24.11.2016 16:28 8,5 C 8,3 C 6,7 C 89 % 0 lf 1019,5 hPa 0,0 l/m 0 min 0 min 10 W/m 35,6 km/h (5 Bft) 97,87 %
24.11.2016 16:30 8,5 C 8,3 C 6,7 C 89 % 0 lf 1019,5 hPa 0,0 l/m 0 min 0 min 9 W/m 31,4 km/h (5 Bft) 100,00 %
24.11.2016 16:32 8,4 C 8,3 C 6,7 C 89 % 0 lf 1019,4 hPa 0,0 l/m 0 min 0 min 9 W/m 27,2 km/h (4 Bft) 97,87 %
24.11.2016 16:34 8,4 C 8,3 C 6,7 C 89 % 0 lf 1019,4 hPa 0,0 l/m 0 min 0 min 7 W/m 20,9 km/h (4 Bft) 95,74 %
24.11.2016 16:36 8,4 C 8,3 C 6,7 C 89 % 0 lf 1019,4 hPa 0,0 l/m 0 min 0 min 7 W/m 29,3 km/h (5 Bft) 97,83 %
24.11.2016 16:38 8,4 C 7,8 C 6,7 C 89 % 0 lf 1019,4 hPa 0,0 l/m 0 min 0 min 7 W/m 23,0 km/h (4 Bft) 95,74 %
24.11.2016 16:40 8,4 C 7,8 C 6,7 C 89 % 0 lf 1019,4 hPa 0,0 l/m 0 min 0 min 6 W/m 25,1 km/h (4 Bft) 91,49 %
24.11.2016 16:42 8,3 C 7,8 C 6,7 C 89 % 0 lf 1019,4 hPa 0,0 l/m 0 min 0 min 5 W/m 31,4 km/h (5 Bft) 95,74 %
24.11.2016 16:44 8,3 C 7,8 C 6,7 C 89 % 0 lf 1019,5 hPa 0,0 l/m 0 min 0 min 5 W/m 27,2 km/h (4 Bft) 95,74 %
24.11.2016 16:46 8,3 C 7,8 C 6,7 C 89 % 0 lf 1019,5 hPa 0,0 l/m 0 min 0 min 5 W/m 35,6 km/h (5 Bft) 95,74 %
24.11.2016 16:48 8,3 C 7,8 C 6,7 C 89 % 0 lf 1019,4 hPa 0,0 l/m 0 min 0 min 5 W/m 27,2 km/h (4 Bft) 91,30 %
24.11.2016 16:50 8,3 C 7,8 C 6,7 C 89 % 0 lf 1019,4 hPa 0,0 l/m 0 min 0 min 5 W/m 31,4 km/h (5 Bft) 91,49 %
24.11.2016 16:52 8,3 C 7,8 C 6,7 C 89 % 0 lf 1019,4 hPa 0,0 l/m 0 min 0 min 5 W/m 29,3 km/h (5 Bft) 91,49 %
24.11.2016 16:54 8,2 C 7,8 C 6,7 C 89 % 0 lf 1019,4 hPa 0,0 l/m 0 min 0 min 5 W/m 33,5 km/h (5 Bft) 93,62 %
24.11.2016 16:56 8,2 C 7,8 C 6,7 C 89 % 0 lf 1019,4 hPa 0,0 l/m 0 min 0 min 0 W/m 37,7 km/h (5 Bft) 87,23 %
24.11.2016 16:58 8,2 C 7,8 C 6,7 C 89 % 0 lf 1019,4 hPa 0,0 l/m 0 min 0 min 0 W/m 33,5 km/h (5 Bft) 91,49 %
24.11.2016 17:00 8,2 C 7,8 C 6,7 C 89 % 0 lf 1019,4 hPa 0,0 l/m 0 min 0 min 0 W/m 27,2 km/h (4 Bft) 93,48 %
24.11.2016 17:02 8,2 C 7,8 C 6,7 C 89 % 0 lf 1019,3 hPa 0,0 l/m 0 min 0 min 0 W/m 25,1 km/h (4 Bft) 93,62 %
24.11.2016 17:04 8,2 C 7,8 C 6,7 C 89 % 0 lf 1019,4 hPa 0,0 l/m 0 min 0 min 0 W/m 25,1 km/h (4 Bft) 95,74 %
24.11.2016 17:06 8,1 C 7,8 C 6,7 C 89 % 0 lf 1019,4 hPa 0,0 l/m 0 min 0 min 0 W/m 25,1 km/h (4 Bft) 95,74 %
24.11.2016 17:08 8,1 C 7,8 C 6,7 C 89 % 0 lf 1019,3 hPa 0,0 l/m 0 min 0 min 0 W/m 18,8 km/h (3 Bft) 93,62 %
24.11.2016 17:10 8,1 C 7,8 C 6,1 C 89 % 0 lf 1019,4 hPa 0,0 l/m 0 min 0 min 0 W/m 29,3 km/h (5 Bft) 91,30 %
24.11.2016 17:12 8,1 C 7,8 C 6,1 C 89 % 0 lf 1019,4 hPa 0,0 l/m 0 min 0 min 0 W/m 31,4 km/h (5 Bft) 91,49 %
24.11.2016 17:14 8,1 C 7,8 C 6,7 C 89 % 0 lf 1019,5 hPa 0,0 l/m 0 min 0 min 0 W/m 31,4 km/h (5 Bft) 89,36 %
24.11.2016 17:16 8,1 C 7,8 C 6,1 C 89 % 0 lf 1019,5 hPa 0,0 l/m 0 min 0 min 0 W/m 29,3 km/h (5 Bft) 93,62 %
24.11.2016 17:18 8,0 C 7,8 C 6,1 C 89 % 0 lf 1019,6 hPa 0,0 l/m 0 min 0 min 0 W/m 31,4 km/h (5 Bft) 89,36 %
24.11.2016 17:20 8,0 C 7,8 C 6,1 C 89 % 0 lf 1019,5 hPa 0,0 l/m 0 min 0 min 0 W/m 25,1 km/h (4 Bft) 91,49 %
24.11.2016 17:22 8,0 C 7,8 C 6,1 C 89 % 0 lf 1019,6 hPa 0,0 l/m 0 min 0 min 0 W/m 18,8 km/h (3 Bft) 93,48 %
24.11.2016 17:24 7,9 C 7,8 C 6,1 C 89 % 0 lf 1019,7 hPa 0,0 l/m 0 min 0 min 0 W/m 20,9 km/h (4 Bft) 91,49 %
24.11.2016 17:26 7,9 C 7,8 C 6,1 C 89 % 0 lf 1019,7 hPa 0,0 l/m 0 min 0 min 0 W/m 35,6 km/h (5 Bft) 91,49 %
24.11.2016 17:28 7,9 C 7,8 C 6,1 C 89 % 0 lf 1019,7 hPa 0,0 l/m 0 min 0 min 0 W/m 27,2 km/h (4 Bft) 93,62 %
24.11.2016 17:30 7,9 C 7,8 C 6,1 C 89 % 0 lf 1019,7 hPa 0,0 l/m 0 min 0 min 0 W/m 23,0 km/h (4 Bft) 93,62 %
24.11.2016 17:32 7,9 C 7,8 C 6,1 C 89 % 0 lf 1019,8 hPa 0,0 l/m 0 min 0 min 0 W/m 25,1 km/h (4 Bft) 91,49 %
24.11.2016 17:34 7,9 C 7,8 C 6,1 C 89 % 0 lf 1019,8 hPa 0,0 l/m 0 min 0 min 0 W/m 23,0 km/h (4 Bft) 84,78 %
24.11.2016 17:36 7,9 C 7,8 C 6,1 C 89 % 0 lf 1019,8 hPa 0,0 l/m 0 min 0 min 0 W/m 23,0 km/h (4 Bft) 91,49 %
24.11.2016 17:38 7,9 C 7,8 C 6,1 C 89 % 0 lf 1019,8 hPa 0,0 l/m 0 min 0 min 0 W/m 25,1 km/h (4 Bft) 93,62 %
24.11.2016 17:40 7,9 C 7,8 C 6,1 C 89 % 0 lf 1019,9 hPa 0,0 l/m 0 min 0 min 0 W/m 29,3 km/h (5 Bft) 91,49 %
24.11.2016 17:42 7,8 C 7,8 C 6,1 C 89 % 0 lf 1020,0 hPa 0,0 l/m 0 min 0 min 0 W/m 27,2 km/h (4 Bft) 93,62 %
24.11.2016 17:44 7,8 C 7,8 C 6,1 C 89 % 0 lf 1020,0 hPa 0,0 l/m 0 min 0 min 0 W/m 31,4 km/h (5 Bft) 93,62 %
24.11.2016 17:46 7,8 C 7,8 C 6,1 C 89 % 0 lf 1020,1 hPa 0,0 l/m 0 min 0 min 0 W/m 31,4 km/h (5 Bft) 95,65 %
24.11.2016 17:48 7,8 C 7,8 C 6,1 C 89 % 0 lf 1020,3 hPa 0,0 l/m 0 min 0 min 0 W/m 23,0 km/h (4 Bft) 89,36 %
24.11.2016 17:50 7,8 C 7,8 C 6,1 C 89 % 0 lf 1020,3 hPa 0,0 l/m 0 min 0 min 0 W/m 20,9 km/h (4 Bft) 95,74 %
24.11.2016 17:52 7,8 C 7,8 C 6,1 C 89 % 0 lf 1020,4 hPa 0,0 l/m 0 min 0 min 0 W/m 29,3 km/h (5 Bft) 97,87 %
24.11.2016 17:54 7,8 C 7,8 C 6,1 C 89 % 0 lf 1020,4 hPa 0,0 l/m 0 min 0 min 0 W/m 33,5 km/h (5 Bft) 91,49 %
24.11.2016 17:56 7,8 C 7,8 C 6,1 C 89 % 0 lf 1020,4 hPa 0,0 l/m 0 min 0 min 0 W/m 33,5 km/h (5 Bft) 97,87 %
24.11.2016 17:58 7,8 C 7,8 C 6,1 C 89 % 0 lf 1020,4 hPa 0,0 l/m 0 min 0 min 0 W/m 33,5 km/h (5 Bft) 100,00 %
24.11.2016 18:00 7,7 C 7,8 C 6,1 C 89 % 0 lf 1020,4 hPa 0,0 l/m 0 min 0 min 0 W/m 25,1 km/h (4 Bft) 95,74 %
24.11.2016 18:02 7,7 C 7,8 C 6,1 C 89 % 0 lf 1020,3 hPa 0,0 l/m 0 min 0 min 0 W/m 25,1 km/h (4 Bft) 95,74 %
24.11.2016 18:06 7,7 C 7,2 C 6,1 C 89 % 0 lf 1020,4 hPa 0,0 l/m 0 min 0 min 0 W/m 29,3 km/h (5 Bft) 96,81 %
24.11.2016 18:08 7,7 C 7,2 C 6,1 C 89 % 0 lf 1020,3 hPa 0,0 l/m 0 min 0 min 0 W/m 25,1 km/h (4 Bft) 100,00 %
24.11.2016 18:10 7,7 C 7,8 C 6,1 C 89 % 0 lf 1020,4 hPa 0,0 l/m 0 min 0 min 0 W/m 25,1 km/h (4 Bft) 100,00 %
24.11.2016 18:12 7,7 C 7,2 C 6,1 C 89 % 0 lf 1020,4 hPa 0,0 l/m 0 min 0 min 0 W/m 25,1 km/h (4 Bft) 97,87 %
24.11.2016 18:14 7,7 C 7,2 C 6,1 C 89 % 0 lf 1020,3 hPa 0,0 l/m 0 min 0 min 0 W/m 20,9 km/h (4 Bft) 97,87 %
24.11.2016 18:16 7,7 C 7,2 C 6,1 C 89 % 0 lf 1020,2 hPa 0,0 l/m 0 min 0 min 0 W/m 23,0 km/h (4 Bft) 95,74 %
24.11.2016 18:18 7,6 C 7,2 C 6,1 C 89 % 0 lf 1020,3 hPa 0,0 l/m 0 min 0 min 0 W/m 27,2 km/h (4 Bft) 93,62 %
24.11.2016 18:20 7,6 C 7,2 C 6,1 C 89 % 0 lf 1020,3 hPa 0,0 l/m 0 min 0 min 0 W/m 27,2 km/h (4 Bft) 97,87 %
24.11.2016 18:22 7,6 C 7,2 C 6,1 C 89 % 0 lf 1020,3 hPa 0,0 l/m 0 min 0 min 0 W/m 31,4 km/h (5 Bft) 95,65 %
24.11.2016 18:24 7,6 C 7,2 C 5,6 C 89 % 0 lf 1020,3 hPa 0,0 l/m 0 min 0 min 0 W/m 31,4 km/h (5 Bft) 97,87 %
24.11.2016 18:26 7,6 C 7,2 C 5,6 C 89 % 0 lf 1020,4 hPa 0,0 l/m 0 min 0 min 0 W/m 29,3 km/h (5 Bft) 97,87 %
24.11.2016 18:28 7,6 C 7,2 C 5,6 C 89 % 0 lf 1020,4 hPa 0,0 l/m 0 min 0 min 0 W/m 31,4 km/h (5 Bft) 97,87 %
24.11.2016 18:30 7,6 C 7,2 C 5,6 C 89 % 0 lf 1020,4 hPa 0,0 l/m 0 min 0 min 0 W/m 31,4 km/h (5 Bft) 95,74 %
24.11.2016 18:32 7,6 C 7,8 C 5,6 C 89 % 0 lf 1020,5 hPa 0,0 l/m 0 min 0 min 0 W/m 31,4 km/h (5 Bft) 97,83 %
24.11.2016 18:34 7,5 C 7,2 C 6,1 C 89 % 0 lf 1020,4 hPa 0,0 l/m 0 min 0 min 0 W/m 27,2 km/h (4 Bft) 97,87 %
24.11.2016 18:36 7,5 C 7,2 C 5,6 C 89 % 0 lf 1020,5 hPa 0,0 l/m 0 min 0 min 0 W/m 29,3 km/h (5 Bft) 97,87 %
24.11.2016 18:38 7,5 C 7,2 C 5,6 C 89 % 0 lf 1020,5 hPa 0,0 l/m 0 min 0 min 0 W/m 27,2 km/h (4 Bft) 95,74 %
24.11.2016 18:40 7,5 C 7,2 C 5,6 C 89 % 0 lf 1020,5 hPa 0,0 l/m 0 min 0 min 0 W/m 16,7 km/h (3 Bft) 95,74 %
24.11.2016 18:42 7,5 C 7,2 C 5,6 C 89 % 0 lf 1020,5 hPa 0,0 l/m 0 min 0 min 0 W/m 23,0 km/h (4 Bft) 95,74 %
24.11.2016 18:44 7,5 C 7,2 C 5,6 C 89 % 0 lf 1020,5 hPa 0,0 l/m 0 min 0 min 0 W/m 29,3 km/h (5 Bft) 97,83 %
24.11.2016 18:46 7,4 C 7,2 C 5,6 C 89 % 0 lf 1020,6 hPa 0,0 l/m 0 min 0 min 0 W/m 23,0 km/h (4 Bft) 95,74 %
24.11.2016 18:48 7,4 C 7,2 C 5,6 C 89 % 0 lf 1020,7 hPa 0,0 l/m 0 min 0 min 0 W/m 23,0 km/h (4 Bft) 95,74 %
24.11.2016 18:50 7,4 C 7,2 C 5,6 C 89 % 0 lf 1020,8 hPa 0,0 l/m 0 min 0 min 0 W/m 23,0 km/h (4 Bft) 93,62 %
24.11.2016 18:52 7,4 C 7,2 C 5,6 C 89 % 0 lf 1020,7 hPa 0,0 l/m 0 min 0 min 0 W/m 27,2 km/h (4 Bft) 97,87 %
24.11.2016 18:54 7,4 C 7,2 C 5,6 C 89 % 0 lf 1020,7 hPa 0,0 l/m 0 min 0 min 0 W/m 29,3 km/h (5 Bft) 95,74 %
24.11.2016 18:56 7,4 C 7,2 C 5,6 C 89 % 0 lf 1020,7 hPa 0,0 l/m 0 min 0 min 0 W/m 25,1 km/h (4 Bft) 91,30 %
24.11.2016 18:58 7,3 C 7,2 C 5,6 C 89 % 0 lf 1020,7 hPa 0,0 l/m 0 min 0 min 0 W/m 20,9 km/h (4 Bft) 97,87 %
24.11.2016 19:00 7,3 C 7,2 C 5,6 C 89 % 0 lf 1020,7 hPa 0,0 l/m 0 min 0 min 0 W/m 23,0 km/h (4 Bft) 100,00 %
24.11.2016 19:02 7,3 C 6,7 C 5,6 C 89 % 0 lf 1020,7 hPa 0,0 l/m 0 min 0 min 0 W/m 20,9 km/h (4 Bft) 95,74 %
24.11.2016 19:04 7,3 C 6,7 C 5,6 C 89 % 0 lf 1020,7 hPa 0,0 l/m 0 min 0 min 0 W/m 23,0 km/h (4 Bft) 95,74 %
24.11.2016 19:06 7,3 C 6,7 C 5,6 C 89 % 0 lf 1020,7 hPa 0,0 l/m 0 min 0 min 0 W/m 20,9 km/h (4 Bft) 97,87 %
24.11.2016 19:08 7,2 C 6,7 C 5,6 C 89 % 0 lf 1020,7 hPa 0,0 l/m 0 min 0 min 0 W/m 23,0 km/h (4 Bft) 100,00 %
24.11.2016 19:10 7,2 C 6,7 C 5,6 C 89 % 0 lf 1020,9 hPa 0,0 l/m 0 min 0 min 0 W/m 27,2 km/h (4 Bft) 100,00 %
24.11.2016 19:12 7,2 C 6,7 C 5,0 C 89 % 0 lf 1020,9 hPa 0,0 l/m 0 min 0 min 0 W/m 31,4 km/h (5 Bft) 97,87 %
24.11.2016 19:14 7,2 C 6,7 C 5,0 C 89 % 0 lf 1020,9 hPa 0,0 l/m 0 min 0 min 0 W/m 31,4 km/h (5 Bft) 100,00 %
24.11.2016 19:16 7,1 C 6,7 C 5,0 C 89 % 0 lf 1020,9 hPa 0,0 l/m 0 min 0 min 0 W/m 29,3 km/h (5 Bft) 97,87 %
24.11.2016 19:18 7,1 C 6,7 C 5,0 C 89 % 0 lf 1020,9 hPa 0,0 l/m 0 min 0 min 0 W/m 23,0 km/h (4 Bft) 100,00 %
24.11.2016 19:20 7,1 C 6,7 C 5,0 C 89 % 0 lf 1020,9 hPa 0,0 l/m 0 min 0 min 0 W/m 27,2 km/h (4 Bft) 100,00 %
24.11.2016 19:22 7,1 C 6,7 C 5,0 C 89 % 0 lf 1020,9 hPa 0,0 l/m 0 min 0 min 0 W/m 29,3 km/h (5 Bft) 97,87 %
24.11.2016 19:24 7,0 C 6,7 C 5,0 C 89 % 0 lf 1020,9 hPa 0,0 l/m 0 min 0 min 0 W/m 33,5 km/h (5 Bft) 97,87 %
24.11.2016 19:26 7,0 C 6,7 C 5,0 C 89 % 0 lf 1020,9 hPa 0,0 l/m 0 min 0 min 0 W/m 27,2 km/h (4 Bft) 97,87 %
24.11.2016 19:28 6,9 C 6,7 C 5,0 C 89 % 0 lf 1020,9 hPa 0,0 l/m 0 min 0 min 0 W/m 23,0 km/h (4 Bft) 97,87 %
24.11.2016 19:30 6,9 C 6,7 C 5,0 C 89 % 0 lf 1020,9 hPa 0,0 l/m 0 min 0 min 0 W/m 27,2 km/h (4 Bft) 97,83 %
24.11.2016 19:32 6,9 C 6,7 C 5,0 C 89 % 0 lf 1020,9 hPa 0,0 l/m 0 min 0 min 0 W/m 23,0 km/h (4 Bft) 100,00 %
24.11.2016 19:34 6,9 C 6,7 C 5,0 C 89 % 0 lf 1020,8 hPa 0,0 l/m 0 min 0 min 0 W/m 29,3 km/h (5 Bft) 97,87 %
24.11.2016 19:36 6,9 C 6,7 C 5,0 C 89 % 0 lf 1020,9 hPa 0,0 l/m 0 min 0 min 0 W/m 27,2 km/h (4 Bft) 95,74 %
24.11.2016 19:38 6,8 C 6,7 C 5,0 C 89 % 0 lf 1020,9 hPa 0,0 l/m 0 min 0 min 0 W/m 25,1 km/h (4 Bft) 100,00 %
24.11.2016 19:40 6,8 C 6,7 C 5,0 C 89 % 0 lf 1021,0 hPa 0,0 l/m 0 min 0 min 0 W/m 23,0 km/h (4 Bft) 100,00 %
24.11.2016 19:42 6,8 C 6,7 C 5,0 C 90 % 0 lf 1021,0 hPa 0,0 l/m 0 min 0 min 0 W/m 25,1 km/h (4 Bft) 95,65 %
24.11.2016 19:44 6,8 C 6,7 C 5,0 C 90 % 0 lf 1020,9 hPa 0,0 l/m 0 min 0 min 0 W/m 25,1 km/h (4 Bft) 95,74 %
24.11.2016 19:46 6,8 C 6,7 C 5,0 C 90 % 0 lf 1020,9 hPa 0,0 l/m 0 min 0 min 0 W/m 25,1 km/h (4 Bft) 95,74 %
24.11.2016 19:48 6,7 C 6,7 C 5,0 C 90 % 0 lf 1020,9 hPa 0,0 l/m 0 min 0 min 0 W/m 29,3 km/h (5 Bft) 95,74 %
24.11.2016 19:50 6,7 C 6,7 C 5,0 C 90 % 0 lf 1020,9 hPa 0,0 l/m 0 min 0 min 0 W/m 18,8 km/h (3 Bft) 95,74 %
24.11.2016 19:52 6,7 C 6,7 C 5,0 C 90 % 0 lf 1021,0 hPa 0,0 l/m 0 min 0 min 0 W/m 23,0 km/h (4 Bft) 95,74 %
24.11.2016 19:54 6,7 C 6,7 C 5,0 C 90 % 0 lf 1021,0 hPa 0,0 l/m 0 min 0 min 0 W/m 20,9 km/h (4 Bft) 97,83 %
24.11.2016 19:56 6,7 C 6,7 C 5,0 C 90 % 0 lf 1020,9 hPa 0,0 l/m 0 min 0 min 0 W/m 29,3 km/h (5 Bft) 95,74 %
24.11.2016 19:58 6,6 C 6,1 C 5,0 C 90 % 0 lf 1020,8 hPa 0,0 l/m 0 min 0 min 0 W/m 16,7 km/h (3 Bft) 95,74 %
24.11.2016 20:00 6,6 C 6,1 C 5,0 C 90 % 0 lf 1020,8 hPa 0,0 l/m 0 min 0 min 0 W/m 20,9 km/h (4 Bft) 95,74 %
24.11.2016 20:02 6,6 C 6,1 C 5,0 C 90 % 0 lf 1020,8 hPa 0,0 l/m 0 min 0 min 0 W/m 25,1 km/h (4 Bft) 93,62 %
24.11.2016 20:04 6,6 C 6,1 C 5,0 C 90 % 0 lf 1020,8 hPa 0,0 l/m 0 min 0 min 0 W/m 23,0 km/h (4 Bft) 93,62 %
24.11.2016 20:06 6,6 C 6,1 C 5,0 C 90 % 0 lf 1020,8 hPa 0,0 l/m 0 min 0 min 0 W/m 25,1 km/h (4 Bft) 95,65 %
24.11.2016 20:08 6,5 C 6,1 C 5,0 C 90 % 0 lf 1020,8 hPa 0,0 l/m 0 min 0 min 0 W/m 27,2 km/h (4 Bft) 95,74 %
24.11.2016 20:10 6,5 C 6,1 C 5,0 C 90 % 0 lf 1020,8 hPa 0,0 l/m 0 min 0 min 0 W/m 20,9 km/h (4 Bft) 93,62 %
24.11.2016 20:12 6,5 C 6,1 C 4,4 C 90 % 0 lf 1020,8 hPa 0,0 l/m 0 min 0 min 0 W/m 27,2 km/h (4 Bft) 95,74 %
24.11.2016 20:14 6,5 C 6,1 C 4,4 C 90 % 0 lf 1020,8 hPa 0,0 l/m 0 min 0 min 0 W/m 23,0 km/h (4 Bft) 95,74 %
24.11.2016 20:16 6,4 C 6,1 C 4,4 C 90 % 0 lf 1020,8 hPa 0,0 l/m 0 min 0 min 0 W/m 23,0 km/h (4 Bft) 93,62 %
24.11.2016 20:18 6,4 C 6,1 C 4,4 C 90 % 0 lf 1020,8 hPa 0,0 l/m 0 min 0 min 0 W/m 23,0 km/h (4 Bft) 95,65 %
24.11.2016 20:20 6,4 C 6,1 C 4,4 C 90 % 0 lf 1020,8 hPa 0,0 l/m 0 min 0 min 0 W/m 20,9 km/h (4 Bft) 91,49 %
24.11.2016 20:22 6,4 C 6,1 C 4,4 C 90 % 0 lf 1020,8 hPa 0,0 l/m 0 min 0 min 0 W/m 23,0 km/h (4 Bft) 89,36 %
24.11.2016 20:24 6,4 C 6,1 C 4,4 C 90 % 0 lf 1020,8 hPa 0,0 l/m 0 min 0 min 0 W/m 20,9 km/h (4 Bft) 91,49 %
24.11.2016 20:26 6,4 C 6,1 C 4,4 C 90 % 0 lf 1020,7 hPa 0,0 l/m 0 min 0 min 0 W/m 25,1 km/h (4 Bft) 93,62 %
24.11.2016 20:28 6,4 C 6,1 C 4,4 C 90 % 0 lf 1020,7 hPa 0,0 l/m 0 min 0 min 0 W/m 23,0 km/h (4 Bft) 93,62 %
24.11.2016 20:30 6,4 C 6,1 C 4,4 C 90 % 0 lf 1020,7 hPa 0,0 l/m 0 min 0 min 0 W/m 29,3 km/h (5 Bft) 93,48 %
24.11.2016 20:32 6,4 C 6,1 C 4,4 C 90 % 0 lf 1020,7 hPa 0,0 l/m 0 min 0 min 0 W/m 20,9 km/h (4 Bft) 93,62 %
24.11.2016 20:34 6,3 C 6,1 C 4,4 C 90 % 0 lf 1020,7 hPa 0,0 l/m 0 min 0 min 0 W/m 14,6 km/h (3 Bft) 97,87 %
24.11.2016 20:36 6,3 C 6,1 C 4,4 C 90 % 0 lf 1020,7 hPa 0,0 l/m 0 min 0 min 0 W/m 18,8 km/h (3 Bft) 89,36 %
24.11.2016 20:38 6,3 C 6,1 C 4,4 C 90 % 0 lf 1020,7 hPa 0,0 l/m 0 min 0 min 0 W/m 27,2 km/h (4 Bft) 95,74 %
24.11.2016 20:40 6,3 C 6,1 C 4,4 C 91 % 0 lf 1020,6 hPa 0,0 l/m 0 min 0 min 0 W/m 27,2 km/h (4 Bft) 97,87 %
24.11.2016 20:42 6,3 C 6,1 C 4,4 C 91 % 0 lf 1020,7 hPa 0,0 l/m 0 min 0 min 0 W/m 25,1 km/h (4 Bft) 97,83 %
24.11.2016 20:44 6,2 C 6,1 C 4,4 C 91 % 0 lf 1020,7 hPa 0,0 l/m 0 min 0 min 0 W/m 14,6 km/h (3 Bft) 89,36 %
24.11.2016 20:46 6,2 C 6,1 C 4,4 C 91 % 0 lf 1020,6 hPa 0,0 l/m 0 min 0 min 0 W/m 18,8 km/h (3 Bft) 97,87 %
24.11.2016 20:48 6,2 C 6,1 C 4,4 C 91 % 0 lf 1020,6 hPa 0,0 l/m 0 min 0 min 0 W/m 20,9 km/h (4 Bft) 97,87 %
24.11.2016 20:50 6,2 C 6,1 C 4,4 C 91 % 0 lf 1020,7 hPa 0,0 l/m 0 min 0 min 0 W/m 14,6 km/h (3 Bft) 95,74 %
24.11.2016 20:52 6,2 C 6,1 C 4,4 C 91 % 0 lf 1020,7 hPa 0,0 l/m 0 min 0 min 0 W/m 18,8 km/h (3 Bft) 93,48 %
24.11.2016 20:54 6,2 C 6,1 C 4,4 C 91 % 0 lf 1020,6 hPa 0,0 l/m 0 min 0 min 0 W/m 16,7 km/h (3 Bft) 93,62 %
24.11.2016 20:56 6,2 C 5,6 C 4,4 C 91 % 0 lf 1020,6 hPa 0,0 l/m 0 min 0 min 0 W/m 20,9 km/h (4 Bft) 95,74 %
24.11.2016 20:58 6,1 C 5,6 C 4,4 C 91 % 0 lf 1020,6 hPa 0,0 l/m 0 min 0 min 0 W/m 23,0 km/h (4 Bft) 95,74 %
24.11.2016 21:00 6,1 C 5,6 C 4,4 C 91 % 0 lf 1020,6 hPa 0,0 l/m 0 min 0 min 0 W/m 20,9 km/h (4 Bft) 95,74 %
24.11.2016 21:02 6,1 C 5,6 C 4,4 C 91 % 0 lf 1020,6 hPa 0,0 l/m 0 min 0 min 0 W/m 16,7 km/h (3 Bft) 94,00 %
24.11.2016 21:04 6,1 C 5,6 C 4,4 C 91 % 0 lf 1020,7 hPa 0,0 l/m 0 min 0 min 0 W/m 23,0 km/h (4 Bft) 95,65 %
24.11.2016 21:06 6,1 C 5,6 C 4,4 C 91 % 0 lf 1020,6 hPa 0,0 l/m 0 min 0 min 0 W/m 18,8 km/h (3 Bft) 95,74 %
24.11.2016 21:08 6,0 C 5,6 C 4,4 C 91 % 0 lf 1020,6 hPa 0,0 l/m 0 min 0 min 0 W/m 20,9 km/h (4 Bft) 93,62 %
24.11.2016 21:10 6,0 C 5,6 C 4,4 C 91 % 0 lf 1020,6 hPa 0,0 l/m 0 min 0 min 0 W/m 16,7 km/h (3 Bft) 93,02 %
24.11.2016 21:12 6,0 C 5,6 C 4,4 C 91 % 0 lf 1020,6 hPa 0,0 l/m 0 min 0 min 0 W/m 20,9 km/h (4 Bft) 98,04 %
24.11.2016 21:14 6,0 C 5,6 C 4,4 C 91 % 0 lf 1020,6 hPa 0,0 l/m 0 min 0 min 0 W/m 20,9 km/h (4 Bft) 97,83 %
24.11.2016 21:16 5,9 C 5,6 C 4,4 C 91 % 0 lf 1020,6 hPa 0,0 l/m 0 min 0 min 0 W/m 20,9 km/h (4 Bft) 96,23 %
24.11.2016 21:18 5,9 C 5,6 C 4,4 C 91 % 0 lf 1020,5 hPa 0,0 l/m 0 min 0 min 0 W/m 25,1 km/h (4 Bft) 93,62 %
24.11.2016 21:20 5,9 C 5,6 C 4,4 C 91 % 0 lf 1020,6 hPa 0,0 l/m 0 min 0 min 0 W/m 29,3 km/h (5 Bft) 97,87 %
24.11.2016 21:22 5,9 C 5,6 C 4,4 C 91 % 0 lf 1020,7 hPa 0,0 l/m 0 min 0 min 0 W/m 25,1 km/h (4 Bft) 91,49 %
24.11.2016 21:24 5,9 C 5,6 C 4,4 C 91 % 0 lf 1020,5 hPa 0,0 l/m 0 min 0 min 0 W/m 20,9 km/h (4 Bft) 97,87 %
24.11.2016 21:26 5,9 C 5,6 C 4,4 C 91 % 0 lf 1020,7 hPa 0,0 l/m 0 min 0 min 0 W/m 18,8 km/h (3 Bft) 97,83 %
24.11.2016 21:28 5,9 C 5,6 C 4,4 C 91 % 0 lf 1020,6 hPa 0,0 l/m 0 min 0 min 0 W/m 20,9 km/h (4 Bft) 95,74 %
24.11.2016 21:30 5,9 C 5,6 C 4,4 C 91 % 0 lf 1020,6 hPa 0,0 l/m 0 min 0 min 0 W/m 23,0 km/h (4 Bft) 95,74 %
24.11.2016 21:32 5,8 C 5,6 C 4,4 C 91 % 0 lf 1020,7 hPa 0,0 l/m 0 min 0 min 0 W/m 20,9 km/h (4 Bft) 97,87 %
24.11.2016 21:34 5,8 C 5,6 C 4,4 C 91 % 0 lf 1020,7 hPa 0,0 l/m 0 min 0 min 0 W/m 27,2 km/h (4 Bft) 95,74 %
24.11.2016 21:36 5,8 C 5,6 C 4,4 C 91 % 0 lf 1020,7 hPa 0,0 l/m 0 min 0 min 0 W/m 20,9 km/h (4 Bft) 97,87 %
24.11.2016 21:38 5,8 C 5,6 C 4,4 C 91 % 0 lf 1020,8 hPa 0,0 l/m 0 min 0 min 0 W/m 27,2 km/h (4 Bft) 97,83 %
24.11.2016 21:40 5,8 C 5,6 C 4,4 C 91 % 0 lf 1020,8 hPa 0,0 l/m 0 min 0 min 0 W/m 20,9 km/h (4 Bft) 93,62 %
24.11.2016 21:42 5,8 C 5,6 C 4,4 C 91 % 0 lf 1020,8 hPa 0,0 l/m 0 min 0 min 0 W/m 20,9 km/h (4 Bft) 93,62 %
24.11.2016 21:44 5,8 C 5,6 C 4,4 C 91 % 0 lf 1020,7 hPa 0,0 l/m 0 min 0 min 0 W/m 25,1 km/h (4 Bft) 95,74 %
24.11.2016 21:46 5,8 C 5,6 C 4,4 C 91 % 0 lf 1020,8 hPa 0,0 l/m 0 min 0 min 0 W/m 25,1 km/h (4 Bft) 95,74 %
24.11.2016 21:48 5,8 C 5,6 C 4,4 C 91 % 0 lf 1020,8 hPa 0,0 l/m 0 min 0 min 0 W/m 20,9 km/h (4 Bft) 95,65 %
24.11.2016 21:50 5,8 C 5,6 C 4,4 C 91 % 0 lf 1020,8 hPa 0,0 l/m 0 min 0 min 0 W/m 20,9 km/h (4 Bft) 97,87 %
24.11.2016 21:52 5,8 C 5,6 C 4,4 C 91 % 0 lf 1020,8 hPa 0,0 l/m 0 min 0 min 0 W/m 25,1 km/h (4 Bft) 91,49 %
24.11.2016 21:54 5,7 C 5,6 C 4,4 C 91 % 0 lf 1020,8 hPa 0,0 l/m 0 min 0 min 0 W/m 25,1 km/h (4 Bft) 97,87 %
24.11.2016 21:56 5,7 C 5,6 C 4,4 C 91 % 0 lf 1020,8 hPa 0,0 l/m 0 min 0 min 0 W/m 25,1 km/h (4 Bft) 97,87 %
24.11.2016 21:58 5,7 C 5,6 C 3,9 C 91 % 0 lf 1020,7 hPa 0,0 l/m 0 min 0 min 0 W/m 25,1 km/h (4 Bft) 97,87 %
24.11.2016 22:00 5,7 C 5,6 C 3,9 C 91 % 0 lf 1020,8 hPa 0,0 l/m 0 min 0 min 0 W/m 29,3 km/h (5 Bft) 97,83 %
24.11.2016 22:02 5,7 C 5,6 C 3,9 C 91 % 0 lf 1020,8 hPa 0,0 l/m 0 min 0 min 0 W/m 23,0 km/h (4 Bft) 93,62 %
24.11.2016 22:04 5,7 C 5,6 C 3,9 C 91 % 0 lf 1020,8 hPa 0,0 l/m 0 min 0 min 0 W/m 25,1 km/h (4 Bft) 95,74 %
24.11.2016 22:06 5,7 C 5,6 C 3,9 C 91 % 0 lf 1020,8 hPa 0,0 l/m 0 min 0 min 0 W/m 20,9 km/h (4 Bft) 97,87 %
24.11.2016 22:08 5,7 C 5,6 C 3,9 C 91 % 0 lf 1020,8 hPa 0,0 l/m 0 min 0 min 0 W/m 23,0 km/h (4 Bft) 100,00 %
24.11.2016 22:10 5,7 C 5,6 C 3,9 C 91 % 0 lf 1020,8 hPa 0,0 l/m 0 min 0 min 0 W/m 29,3 km/h (5 Bft) 95,12 %
24.11.2016 22:12 5,7 C 5,6 C 3,9 C 91 % 0 lf 1020,8 hPa 0,0 l/m 0 min 0 min 0 W/m 31,4 km/h (5 Bft) 97,87 %
24.11.2016 22:14 5,7 C 5,6 C 3,9 C 91 % 0 lf 1020,9 hPa 0,0 l/m 0 min 0 min 0 W/m 23,0 km/h (4 Bft) 95,65 %
24.11.2016 22:16 5,7 C 5,6 C 3,9 C 91 % 0 lf 1020,9 hPa 0,0 l/m 0 min 0 min 0 W/m 20,9 km/h (4 Bft) 92,45 %
24.11.2016 22:18 5,7 C 5,6 C 3,9 C 91 % 0 lf 1020,9 hPa 0,0 l/m 0 min 0 min 0 W/m 20,9 km/h (4 Bft) 93,62 %
24.11.2016 22:20 5,6 C 5,6 C 3,9 C 91 % 0 lf 1020,9 hPa 0,0 l/m 0 min 0 min 0 W/m 29,3 km/h (5 Bft) 95,74 %
24.11.2016 22:22 5,6 C 5,6 C 3,9 C 91 % 0 lf 1020,9 hPa 0,0 l/m 0 min 0 min 0 W/m 27,2 km/h (4 Bft) 93,62 %
24.11.2016 22:24 5,6 C 5,6 C 3,9 C 91 % 0 lf 1020,8 hPa 0,0 l/m 0 min 0 min 0 W/m 27,2 km/h (4 Bft) 93,48 %
24.11.2016 22:26 5,6 C 5,6 C 3,9 C 91 % 0 lf 1020,9 hPa 0,0 l/m 0 min 0 min 0 W/m 23,0 km/h (4 Bft) 93,62 %
24.11.2016 22:28 5,6 C 5,6 C 3,9 C 91 % 0 lf 1020,8 hPa 0,0 l/m 0 min 0 min 0 W/m 18,8 km/h (3 Bft) 95,74 %
24.11.2016 22:30 5,6 C 5,6 C 3,9 C 91 % 0 lf 1020,9 hPa 0,0 l/m 0 min 0 min 0 W/m 23,0 km/h (4 Bft) 95,74 %
24.11.2016 22:32 5,6 C 5,6 C 3,9 C 91 % 0 lf 1020,9 hPa 0,0 l/m 0 min 0 min 0 W/m 23,0 km/h (4 Bft) 93,62 %
24.11.2016 22:34 5,6 C 5,6 C 3,9 C 91 % 0 lf 1020,9 hPa 0,0 l/m 0 min 0 min 0 W/m 25,1 km/h (4 Bft) 91,30 %
24.11.2016 22:36 5,6 C 5,6 C 3,9 C 91 % 0 lf 1020,8 hPa 0,0 l/m 0 min 0 min 0 W/m 27,2 km/h (4 Bft) 87,23 %
24.11.2016 22:38 5,6 C 5,6 C 3,9 C 91 % 0 lf 1020,8 hPa 0,0 l/m 0 min 0 min 0 W/m 25,1 km/h (4 Bft) 95,74 %
24.11.2016 22:40 5,5 C 5,6 C 3,9 C 91 % 0 lf 1020,9 hPa 0,0 l/m 0 min 0 min 0 W/m 20,9 km/h (4 Bft) 95,74 %
24.11.2016 22:42 5,5 C 5,6 C 3,9 C 91 % 0 lf 1020,8 hPa 0,0 l/m 0 min 0 min 0 W/m 23,0 km/h (4 Bft) 91,49 %
24.11.2016 22:44 5,5 C 5,6 C 3,9 C 91 % 0 lf 1020,8 hPa 0,0 l/m 0 min 0 min 0 W/m 35,6 km/h (5 Bft) 93,62 %
24.11.2016 22:46 5,5 C 5,6 C 3,9 C 91 % 0 lf 1020,8 hPa 0,0 l/m 0 min 0 min 0 W/m 25,1 km/h (4 Bft) 95,74 %
24.11.2016 22:48 5,5 C 5,6 C 3,9 C 91 % 0 lf 1020,7 hPa 0,0 l/m 0 min 0 min 0 W/m 27,2 km/h (4 Bft) 95,65 %
24.11.2016 22:50 5,5 C 5,6 C 3,9 C 91 % 0 lf 1020,7 hPa 0,0 l/m 0 min 0 min 0 W/m 25,1 km/h (4 Bft) 93,62 %
24.11.2016 22:52 5,5 C 5,6 C 3,9 C 91 % 0 lf 1020,8 hPa 0,0 l/m 0 min 0 min 0 W/m 27,2 km/h (4 Bft) 89,36 %
24.11.2016 22:54 5,4 C 5,6 C 3,9 C 91 % 0 lf 1020,9 hPa 0,0 l/m 0 min 0 min 0 W/m 25,1 km/h (4 Bft) 93,62 %
24.11.2016 22:56 5,4 C 5,6 C 3,9 C 91 % 0 lf 1020,9 hPa 0,0 l/m 0 min 0 min 0 W/m 27,2 km/h (4 Bft) 95,74 %
24.11.2016 22:58 5,4 C 5,6 C 3,9 C 91 % 0 lf 1020,8 hPa 0,0 l/m 0 min 0 min 0 W/m 20,9 km/h (4 Bft) 93,48 %
24.11.2016 23:00 5,4 C 5,6 C 3,9 C 91 % 0 lf 1020,8 hPa 0,0 l/m 0 min 0 min 0 W/m 33,5 km/h (5 Bft) 93,62 %
24.11.2016 23:02 5,4 C 5,6 C 3,9 C 91 % 0 lf 1020,7 hPa 0,0 l/m 0 min 0 min 0 W/m 31,4 km/h (5 Bft) 91,49 %
24.11.2016 23:04 5,4 C 5,6 C 3,9 C 91 % 0 lf 1020,7 hPa 0,0 l/m 0 min 0 min 0 W/m 39,7 km/h (6 Bft) 93,62 %
24.11.2016 23:06 5,4 C 5,6 C 3,9 C 91 % 0 lf 1020,6 hPa 0,0 l/m 0 min 0 min 0 W/m 23,0 km/h (4 Bft) 97,87 %
24.11.2016 23:08 5,4 C 5,6 C 3,9 C 91 % 0 lf 1020,5 hPa 0,0 l/m 0 min 0 min 0 W/m 23,0 km/h (4 Bft) 97,87 %
24.11.2016 23:10 5,4 C 5,0 C 3,9 C 91 % 0 lf 1020,5 hPa 0,0 l/m 0 min 0 min 0 W/m 23,0 km/h (4 Bft) 95,65 %
24.11.2016 23:12 5,3 C 5,0 C 3,9 C 90 % 0 lf 1020,6 hPa 0,0 l/m 0 min 0 min 0 W/m 31,4 km/h (5 Bft) 91,49 %
24.11.2016 23:14 5,3 C 5,6 C 3,9 C 90 % 0 lf 1020,6 hPa 0,0 l/m 0 min 0 min 0 W/m 29,3 km/h (5 Bft) 95,74 %
24.11.2016 23:16 5,3 C 5,6 C 3,9 C 90 % 0 lf 1020,7 hPa 0,0 l/m 0 min 0 min 0 W/m 29,3 km/h (5 Bft) 93,62 %
24.11.2016 23:18 5,3 C 5,0 C 3,9 C 90 % 0 lf 1020,7 hPa 0,0 l/m 0 min 0 min 0 W/m 23,0 km/h (4 Bft) 97,87 %
24.11.2016 23:20 5,3 C 5,0 C 3,9 C 90 % 0 lf 1020,7 hPa 0,0 l/m 0 min 0 min 0 W/m 27,2 km/h (4 Bft) 95,74 %
24.11.2016 23:22 5,3 C 5,0 C 3,9 C 90 % 0 lf 1020,7 hPa 0,0 l/m 0 min 0 min 0 W/m 23,0 km/h (4 Bft) 95,65 %
24.11.2016 23:24 5,3 C 5,0 C 3,9 C 90 % 0 lf 1020,6 hPa 0,0 l/m 0 min 0 min 0 W/m 25,1 km/h (4 Bft) 95,74 %
24.11.2016 23:26 5,3 C 5,0 C 3,9 C 90 % 0 lf 1020,6 hPa 0,0 l/m 0 min 0 min 0 W/m 31,4 km/h (5 Bft) 93,62 %
24.11.2016 23:28 5,3 C 5,0 C 3,9 C 90 % 0 lf 1020,4 hPa 0,0 l/m 0 min 0 min 0 W/m 29,3 km/h (5 Bft) 93,62 %
24.11.2016 23:30 5,3 C 5,0 C 3,9 C 90 % 0 lf 1020,5 hPa 0,0 l/m 0 min 0 min 0 W/m 20,9 km/h (4 Bft) 95,74 %
24.11.2016 23:32 5,3 C 5,0 C 3,9 C 90 % 0 lf 1020,6 hPa 0,0 l/m 0 min 0 min 0 W/m 23,0 km/h (4 Bft) 97,87 %
24.11.2016 23:34 5,2 C 5,0 C 3,3 C 90 % 0 lf 1020,6 hPa 0,0 l/m 0 min 0 min 0 W/m 25,1 km/h (4 Bft) 95,65 %
24.11.2016 23:36 5,2 C 5,0 C 3,9 C 90 % 0 lf 1020,7 hPa 0,0 l/m 0 min 0 min 0 W/m 20,9 km/h (4 Bft) 97,87 %
24.11.2016 23:38 5,2 C 5,0 C 3,9 C 90 % 0 lf 1020,7 hPa 0,0 l/m 0 min 0 min 0 W/m 20,9 km/h (4 Bft) 95,74 %
24.11.2016 23:40 5,2 C 5,0 C 3,3 C 90 % 0 lf 1020,7 hPa 0,0 l/m 0 min 0 min 0 W/m 29,3 km/h (5 Bft) 97,87 %
24.11.2016 23:42 5,2 C 5,0 C 3,3 C 90 % 0 lf 1020,7 hPa 0,0 l/m 0 min 0 min 0 W/m 16,7 km/h (3 Bft) 95,74 %
24.11.2016 23:44 5,2 C 5,0 C 3,3 C 90 % 0 lf 1020,7 hPa 0,0 l/m 0 min 0 min 0 W/m 20,9 km/h (4 Bft) 97,87 %
24.11.2016 23:46 5,2 C 5,0 C 3,3 C 90 % 0 lf 1020,6 hPa 0,0 l/m 0 min 0 min 0 W/m 27,2 km/h (4 Bft) 100,00 %
24.11.2016 23:48 5,2 C 5,0 C 3,3 C 90 % 0 lf 1020,6 hPa 0,0 l/m 0 min 0 min 0 W/m 23,0 km/h (4 Bft) 97,87 %
24.11.2016 23:50 5,2 C 5,0 C 3,3 C 90 % 0 lf 1020,6 hPa 0,0 l/m 0 min 0 min 0 W/m 14,6 km/h (3 Bft) 100,00 %
24.11.2016 23:52 5,2 C 5,0 C 3,3 C 90 % 0 lf 1020,6 hPa 0,0 l/m 0 min 0 min 0 W/m 18,8 km/h (3 Bft) 97,87 %
24.11.2016 23:54 5,2 C 5,0 C 3,3 C 90 % 0 lf 1020,5 hPa 0,0 l/m 0 min 0 min 0 W/m 20,9 km/h (4 Bft) 97,87 %
24.11.2016 23:56 5,2 C 5,0 C 3,3 C 90 % 0 lf 1020,5 hPa 0,0 l/m 0 min 0 min 0 W/m 18,8 km/h (3 Bft) 100,00 %
24.11.2016 23:58 5,1 C 5,0 C 3,3 C 90 % 0 lf 1020,5 hPa 0,0 l/m 0 min 0 min 0 W/m 27,2 km/h (4 Bft) 97,87 %
_ Min-Zeit 23:58 23:10 23:34 13:04 00:00 00:00 - - - - 00:14 17:34
Minimum _ 5,1 C 5,0 C 3,3 C 84 % 0 lf 1017,9 hPa - - - - 8,4 km/h (2 Bft) 84,78 %
_ Max-Zeit 12:44 12:32 12:32 00:00 09:00 19:40 00:00 12:06 04:12 12:20 12:34 01:12
Maximum _ 10,6 C 13,9 C 10,6 C 94 % 15 lf 1021,0 hPa 0,0 l/m 2 min 2 min 274 W/m 48,1 km/h
O (6 Bft)
100,00 %
Durchschnitt _ 8,6 C 8,9 C 7,3 C 90 % 1 lf 1019,6 hPa #0,0 l/m #2:14 h #1:14 h 58 W/m 24,5 km/h (4 Bft) 95,76 %
© 2016 W. Hausmann